Wetterdaten: Samstag, 10.08.2019
Datum Zeit Temp. Aussen Temp. o. S. +5cm Feuchte Auss Luftdruck Regen Sonnenschein Regendauer Solar Windben Empfang
10.08.2019 00:00 20,3 C 18,9 C 18,3 C 97 % 1013,2 hPa 0,0 l/m 0 min 0 min 0 W/m 3,2 km/h (1 Bft) 100,00 %
10.08.2019 00:02 20,3 C 18,9 C 18,3 C 97 % 1013,2 hPa 0,0 l/m 0 min 0 min 0 W/m 0,0 km/h (0 Bft) 12,50 %
10.08.2019 00:04 20,2 C 18,9 C 18,3 C 97 % 1013,4 hPa 0,0 l/m 0 min 0 min 0 W/m 3,2 km/h (1 Bft) 86,05 %
10.08.2019 00:08 20,2 C 18,3 C 18,3 C 97 % 1013,2 hPa 0,0 l/m 0 min 0 min 0 W/m 6,4 km/h (2 Bft) 100,00 %
10.08.2019 00:10 20,2 C 18,3 C 18,3 C 97 % 1013,4 hPa 0,0 l/m 0 min 0 min 0 W/m 16,1 km/h (3 Bft) 97,87 %
10.08.2019 00:12 20,1 C 18,9 C 18,3 C 97 % 1013,4 hPa 0,0 l/m 0 min 0 min 0 W/m 16,1 km/h (3 Bft) 97,87 %
10.08.2019 00:14 20,0 C 18,9 C 18,3 C 97 % 1013,4 hPa 0,0 l/m 0 min 0 min 0 W/m 22,5 km/h (4 Bft) 100,00 %
10.08.2019 00:16 19,9 C 18,9 C 18,3 C 96 % 1013,3 hPa 0,0 l/m 0 min 0 min 0 W/m 12,9 km/h (3 Bft) 95,74 %
10.08.2019 00:18 19,9 C 18,3 C 17,8 C 96 % 1013,3 hPa 0,0 l/m 0 min 0 min 0 W/m 16,1 km/h (3 Bft) 100,00 %
10.08.2019 00:20 19,8 C 18,3 C 17,8 C 96 % 1013,4 hPa 0,0 l/m 0 min 0 min 0 W/m 12,9 km/h (3 Bft) 100,00 %
10.08.2019 00:22 19,7 C 18,3 C 17,8 C 96 % 1013,4 hPa 0,0 l/m 0 min 0 min 0 W/m 9,7 km/h (2 Bft) 97,87 %
10.08.2019 00:24 19,6 C 18,3 C 17,8 C 96 % 1013,4 hPa 0,0 l/m 0 min 0 min 0 W/m 19,3 km/h (3 Bft) 97,87 %
10.08.2019 00:26 19,6 C 18,3 C 17,8 C 96 % 1013,4 hPa 0,0 l/m 0 min 0 min 0 W/m 9,7 km/h (2 Bft) 97,87 %
10.08.2019 00:28 19,5 C 18,3 C 17,8 C 96 % 1013,4 hPa 0,0 l/m 0 min 0 min 0 W/m 12,9 km/h (3 Bft) 95,74 %
10.08.2019 00:30 19,5 C 18,3 C 17,8 C 96 % 1013,4 hPa 0,0 l/m 0 min 0 min 0 W/m 12,9 km/h (3 Bft) 97,87 %
10.08.2019 00:32 19,4 C 18,3 C 17,8 C 95 % 1013,3 hPa 0,0 l/m 0 min 0 min 0 W/m 9,7 km/h (2 Bft) 97,83 %
10.08.2019 00:34 19,4 C 18,3 C 17,8 C 95 % 1013,3 hPa 0,0 l/m 0 min 0 min 0 W/m 12,9 km/h (3 Bft) 95,74 %
10.08.2019 00:36 19,4 C 18,3 C 17,2 C 95 % 1013,3 hPa 0,0 l/m 0 min 0 min 0 W/m 16,1 km/h (3 Bft) 95,74 %
10.08.2019 00:38 19,3 C 18,3 C 17,2 C 95 % 1013,3 hPa 0,0 l/m 0 min 0 min 0 W/m 12,9 km/h (3 Bft) 97,87 %
10.08.2019 00:40 19,3 C 18,3 C 17,2 C 94 % 1013,4 hPa 0,0 l/m 0 min 0 min 0 W/m 19,3 km/h (3 Bft) 97,87 %
10.08.2019 00:42 19,3 C 18,3 C 17,2 C 94 % 1013,4 hPa 0,0 l/m 0 min 0 min 0 W/m 19,3 km/h (3 Bft) 95,74 %
10.08.2019 00:44 19,2 C 18,3 C 17,2 C 93 % 1013,3 hPa 0,0 l/m 0 min 0 min 0 W/m 25,7 km/h (4 Bft) 97,83 %
10.08.2019 00:46 19,2 C 18,3 C 17,2 C 93 % 1013,4 hPa 0,0 l/m 0 min 0 min 0 W/m 9,7 km/h (2 Bft) 95,74 %
10.08.2019 00:48 19,3 C 18,3 C 17,2 C 93 % 1013,4 hPa 0,0 l/m 0 min 0 min 0 W/m 9,7 km/h (2 Bft) 95,74 %
10.08.2019 00:50 19,3 C 18,3 C 17,2 C 92 % 1013,5 hPa 0,0 l/m 0 min 0 min 0 W/m 9,7 km/h (2 Bft) 93,62 %
10.08.2019 00:52 19,3 C 18,3 C 17,2 C 92 % 1013,5 hPa 0,0 l/m 0 min 0 min 0 W/m 16,1 km/h (3 Bft) 95,74 %
10.08.2019 00:54 19,3 C 18,3 C 17,2 C 92 % 1013,5 hPa 0,0 l/m 0 min 0 min 0 W/m 22,5 km/h (4 Bft) 93,62 %
10.08.2019 00:56 19,3 C 18,3 C 17,2 C 91 % 1013,4 hPa 0,0 l/m 0 min 0 min 0 W/m 19,3 km/h (3 Bft) 95,65 %
10.08.2019 00:58 19,4 C 18,3 C 17,2 C 91 % 1013,4 hPa 0,0 l/m 0 min 0 min 0 W/m 29,0 km/h (5 Bft) 95,74 %
10.08.2019 01:00 19,4 C 18,3 C 17,2 C 90 % 1013,5 hPa 0,0 l/m 0 min 0 min 0 W/m 16,1 km/h (3 Bft) 95,74 %
10.08.2019 01:02 19,4 C 17,8 C 17,2 C 90 % 1013,6 hPa 0,0 l/m 0 min 0 min 0 W/m 22,5 km/h (4 Bft) 95,74 %
10.08.2019 01:04 19,4 C 18,3 C 17,2 C 89 % 1013,5 hPa 0,0 l/m 0 min 0 min 0 W/m 16,1 km/h (3 Bft) 93,62 %
10.08.2019 01:06 19,5 C 18,3 C 17,2 C 89 % 1013,5 hPa 0,0 l/m 0 min 0 min 0 W/m 25,7 km/h (4 Bft) 95,65 %
10.08.2019 01:08 19,5 C 18,3 C 17,2 C 88 % 1013,4 hPa 0,0 l/m 0 min 0 min 0 W/m 16,1 km/h (3 Bft) 95,74 %
10.08.2019 01:10 19,6 C 18,3 C 17,2 C 88 % 1013,5 hPa 0,0 l/m 0 min 0 min 0 W/m 29,0 km/h (5 Bft) 95,74 %
10.08.2019 01:12 19,6 C 18,3 C 17,2 C 88 % 1013,4 hPa 0,0 l/m 0 min 0 min 0 W/m 19,3 km/h (3 Bft) 91,49 %
10.08.2019 01:14 19,6 C 18,3 C 17,2 C 87 % 1013,2 hPa 0,0 l/m 0 min 0 min 0 W/m 12,9 km/h (3 Bft) 91,49 %
10.08.2019 01:16 19,7 C 18,3 C 17,2 C 87 % 1013,3 hPa 0,0 l/m 0 min 0 min 0 W/m 16,1 km/h (3 Bft) 93,62 %
10.08.2019 01:18 19,7 C 18,3 C 17,8 C 86 % 1013,4 hPa 0,0 l/m 0 min 0 min 0 W/m 29,0 km/h (5 Bft) 95,65 %
10.08.2019 01:20 19,7 C 18,3 C 18,3 C 86 % 1013,4 hPa 0,0 l/m 0 min 0 min 0 W/m 22,5 km/h (4 Bft) 93,62 %
10.08.2019 01:22 19,7 C 18,3 C 18,3 C 86 % 1013,4 hPa 0,0 l/m 0 min 0 min 0 W/m 16,1 km/h (3 Bft) 93,62 %
10.08.2019 01:24 19,7 C 18,3 C 18,3 C 86 % 1013,5 hPa 0,0 l/m 0 min 0 min 0 W/m 12,9 km/h (3 Bft) 93,62 %
10.08.2019 01:26 19,8 C 18,3 C 18,3 C 86 % 1013,6 hPa 0,0 l/m 0 min 0 min 0 W/m 16,1 km/h (3 Bft) 91,49 %
10.08.2019 01:28 19,8 C 18,3 C 18,3 C 85 % 1013,4 hPa 0,0 l/m 0 min 0 min 0 W/m 22,5 km/h (4 Bft) 93,62 %
10.08.2019 01:30 19,8 C 18,9 C 18,3 C 85 % 1013,3 hPa 0,0 l/m 0 min 0 min 0 W/m 22,5 km/h (4 Bft) 93,48 %
10.08.2019 01:32 19,8 C 18,9 C 18,9 C 85 % 1013,3 hPa 0,0 l/m 0 min 0 min 0 W/m 22,5 km/h (4 Bft) 93,62 %
10.08.2019 01:34 19,8 C 18,9 C 18,9 C 85 % 1013,4 hPa 0,0 l/m 0 min 0 min 0 W/m 16,1 km/h (3 Bft) 97,87 %
10.08.2019 01:36 19,8 C 18,9 C 18,3 C 85 % 1013,4 hPa 0,0 l/m 0 min 0 min 0 W/m 16,1 km/h (3 Bft) 97,87 %
10.08.2019 01:38 19,8 C 18,9 C 18,3 C 85 % 1013,4 hPa 0,0 l/m 0 min 0 min 0 W/m 22,5 km/h (4 Bft) 97,87 %
10.08.2019 01:40 19,8 C 18,9 C 18,3 C 85 % 1013,4 hPa 0,0 l/m 0 min 0 min 0 W/m 12,9 km/h (3 Bft) 95,74 %
10.08.2019 01:42 19,8 C 18,9 C 18,3 C 85 % 1013,4 hPa 0,0 l/m 0 min 0 min 0 W/m 22,5 km/h (4 Bft) 93,48 %
10.08.2019 01:44 19,8 C 18,9 C 18,3 C 85 % 1013,4 hPa 0,0 l/m 0 min 0 min 0 W/m 19,3 km/h (3 Bft) 97,87 %
10.08.2019 01:46 19,8 C 18,9 C 18,3 C 85 % 1013,4 hPa 0,0 l/m 0 min 0 min 0 W/m 22,5 km/h (4 Bft) 97,87 %
10.08.2019 01:48 19,8 C 18,9 C 18,3 C 85 % 1013,5 hPa 0,0 l/m 0 min 0 min 0 W/m 22,5 km/h (4 Bft) 95,74 %
10.08.2019 01:50 19,8 C 18,9 C 18,3 C 85 % 1013,4 hPa 0,0 l/m 0 min 0 min 0 W/m 19,3 km/h (3 Bft) 95,74 %
10.08.2019 01:52 19,7 C 18,9 C 18,3 C 85 % 1013,4 hPa 0,0 l/m 0 min 0 min 0 W/m 16,1 km/h (3 Bft) 95,74 %
10.08.2019 01:54 19,7 C 18,9 C 18,3 C 85 % 1013,4 hPa 0,0 l/m 0 min 0 min 0 W/m 22,5 km/h (4 Bft) 97,83 %
10.08.2019 01:56 19,7 C 18,9 C 18,3 C 85 % 1013,2 hPa 0,0 l/m 0 min 0 min 0 W/m 19,3 km/h (3 Bft) 100,00 %
10.08.2019 01:58 19,7 C 18,9 C 18,3 C 85 % 1013,2 hPa 0,0 l/m 0 min 0 min 0 W/m 16,1 km/h (3 Bft) 100,00 %
10.08.2019 02:00 19,7 C 18,9 C 18,3 C 85 % 1013,2 hPa 0,0 l/m 0 min 0 min 0 W/m 22,5 km/h (4 Bft) 100,00 %
10.08.2019 02:02 19,7 C 18,9 C 18,3 C 85 % 1013,3 hPa 0,0 l/m 0 min 0 min 0 W/m 19,3 km/h (3 Bft) 100,00 %
10.08.2019 02:04 19,7 C 18,9 C 18,3 C 85 % 1013,3 hPa 0,0 l/m 0 min 0 min 0 W/m 16,1 km/h (3 Bft) 100,00 %
10.08.2019 02:06 19,6 C 18,3 C 18,3 C 85 % 1013,2 hPa 0,0 l/m 0 min 0 min 0 W/m 16,1 km/h (3 Bft) 97,83 %
10.08.2019 02:08 19,6 C 18,3 C 18,3 C 85 % 1013,2 hPa 0,0 l/m 0 min 0 min 0 W/m 12,9 km/h (3 Bft) 100,00 %
10.08.2019 02:10 19,6 C 18,3 C 18,3 C 85 % 1013,2 hPa 0,0 l/m 0 min 0 min 0 W/m 19,3 km/h (3 Bft) 100,00 %
10.08.2019 02:12 19,6 C 18,3 C 18,3 C 85 % 1013,2 hPa 0,0 l/m 0 min 0 min 0 W/m 16,1 km/h (3 Bft) 100,00 %
10.08.2019 02:14 19,6 C 18,3 C 18,3 C 85 % 1013,2 hPa 0,0 l/m 0 min 0 min 0 W/m 16,1 km/h (3 Bft) 100,00 %
10.08.2019 02:16 19,6 C 18,9 C 18,3 C 85 % 1013,3 hPa 0,0 l/m 0 min 0 min 0 W/m 19,3 km/h (3 Bft) 100,00 %
10.08.2019 02:18 19,5 C 18,3 C 18,3 C 85 % 1013,3 hPa 0,0 l/m 0 min 0 min 0 W/m 16,1 km/h (3 Bft) 100,00 %
10.08.2019 02:20 19,5 C 18,9 C 18,3 C 85 % 1013,3 hPa 0,0 l/m 0 min 0 min 0 W/m 22,5 km/h (4 Bft) 100,00 %
10.08.2019 02:22 19,5 C 18,9 C 18,3 C 85 % 1013,2 hPa 0,0 l/m 0 min 0 min 0 W/m 22,5 km/h (4 Bft) 100,00 %
10.08.2019 02:24 19,5 C 18,3 C 18,3 C 85 % 1013,2 hPa 0,0 l/m 0 min 0 min 0 W/m 16,1 km/h (3 Bft) 100,00 %
10.08.2019 02:26 19,5 C 18,3 C 18,3 C 85 % 1013,2 hPa 0,0 l/m 0 min 0 min 0 W/m 16,1 km/h (3 Bft) 100,00 %
10.08.2019 02:28 19,4 C 18,3 C 18,3 C 85 % 1013,3 hPa 0,0 l/m 0 min 0 min 0 W/m 12,9 km/h (3 Bft) 100,00 %
10.08.2019 02:30 19,4 C 18,3 C 18,3 C 85 % 1013,4 hPa 0,0 l/m 0 min 0 min 0 W/m 16,1 km/h (3 Bft) 100,00 %
10.08.2019 02:32 19,4 C 18,3 C 18,3 C 85 % 1013,4 hPa 0,0 l/m 0 min 0 min 0 W/m 16,1 km/h (3 Bft) 100,00 %
10.08.2019 02:34 19,4 C 18,3 C 18,3 C 85 % 1013,5 hPa 0,0 l/m 0 min 0 min 0 W/m 22,5 km/h (4 Bft) 100,00 %
10.08.2019 02:36 19,4 C 18,3 C 18,3 C 85 % 1013,4 hPa 0,0 l/m 0 min 0 min 0 W/m 22,5 km/h (4 Bft) 100,00 %
10.08.2019 02:38 19,4 C 18,9 C 18,3 C 85 % 1013,4 hPa 0,0 l/m 0 min 0 min 0 W/m 16,1 km/h (3 Bft) 100,00 %
10.08.2019 02:40 19,4 C 18,3 C 18,3 C 85 % 1013,3 hPa 0,0 l/m 0 min 0 min 0 W/m 25,7 km/h (4 Bft) 100,00 %
10.08.2019 02:42 19,4 C 18,3 C 18,3 C 85 % 1013,3 hPa 0,0 l/m 0 min 0 min 0 W/m 16,1 km/h (3 Bft) 97,87 %
10.08.2019 02:44 19,4 C 18,3 C 18,3 C 85 % 1013,2 hPa 0,0 l/m 0 min 0 min 0 W/m 12,9 km/h (3 Bft) 95,74 %
10.08.2019 02:46 19,4 C 18,3 C 17,8 C 85 % 1013,2 hPa 0,0 l/m 0 min 0 min 0 W/m 12,9 km/h (3 Bft) 100,00 %
10.08.2019 02:48 19,4 C 18,3 C 18,3 C 85 % 1013,3 hPa 0,0 l/m 0 min 0 min 0 W/m 19,3 km/h (3 Bft) 100,00 %
10.08.2019 02:50 19,4 C 18,3 C 17,8 C 85 % 1013,3 hPa 0,0 l/m 0 min 0 min 0 W/m 16,1 km/h (3 Bft) 100,00 %
10.08.2019 02:52 19,4 C 18,3 C 17,8 C 85 % 1013,3 hPa 0,0 l/m 0 min 0 min 0 W/m 12,9 km/h (3 Bft) 100,00 %
10.08.2019 02:54 19,4 C 18,3 C 18,3 C 85 % 1013,3 hPa 0,0 l/m 0 min 0 min 0 W/m 16,1 km/h (3 Bft) 100,00 %
10.08.2019 02:56 19,3 C 18,9 C 18,3 C 85 % 1013,2 hPa 0,0 l/m 0 min 0 min 0 W/m 25,7 km/h (4 Bft) 100,00 %
10.08.2019 02:58 19,4 C 18,9 C 18,3 C 85 % 1013,2 hPa 0,0 l/m 0 min 0 min 0 W/m 12,9 km/h (3 Bft) 100,00 %
10.08.2019 03:00 19,4 C 18,3 C 18,3 C 85 % 1013,2 hPa 0,0 l/m 0 min 0 min 0 W/m 9,7 km/h (2 Bft) 100,00 %
10.08.2019 03:02 19,4 C 18,3 C 18,3 C 85 % 1013,3 hPa 0,0 l/m 0 min 0 min 0 W/m 12,9 km/h (3 Bft) 100,00 %
10.08.2019 03:04 19,3 C 18,3 C 18,3 C 85 % 1013,2 hPa 0,0 l/m 0 min 0 min 0 W/m 16,1 km/h (3 Bft) 100,00 %
10.08.2019 03:06 19,4 C 18,3 C 17,8 C 85 % 1013,2 hPa 0,0 l/m 0 min 0 min 0 W/m 9,7 km/h (2 Bft) 100,00 %
10.08.2019 03:08 19,3 C 18,3 C 17,8 C 85 % 1013,2 hPa 0,0 l/m 0 min 0 min 0 W/m 22,5 km/h (4 Bft) 100,00 %
10.08.2019 03:10 19,3 C 18,3 C 17,8 C 85 % 1013,2 hPa 0,0 l/m 0 min 0 min 0 W/m 19,3 km/h (3 Bft) 97,87 %
10.08.2019 03:12 19,3 C 18,3 C 17,8 C 85 % 1013,1 hPa 0,0 l/m 0 min 0 min 0 W/m 12,9 km/h (3 Bft) 100,00 %
10.08.2019 03:14 19,3 C 18,3 C 17,8 C 85 % 1013,1 hPa 0,0 l/m 0 min 0 min 0 W/m 12,9 km/h (3 Bft) 100,00 %
10.08.2019 03:16 19,3 C 18,3 C 17,8 C 85 % 1013,1 hPa 0,0 l/m 0 min 0 min 0 W/m 16,1 km/h (3 Bft) 100,00 %
10.08.2019 03:18 19,3 C 18,3 C 17,8 C 85 % 1013,1 hPa 0,0 l/m 0 min 0 min 0 W/m 19,3 km/h (3 Bft) 100,00 %
10.08.2019 03:20 19,3 C 18,3 C 17,8 C 86 % 1013,1 hPa 0,0 l/m 0 min 0 min 0 W/m 16,1 km/h (3 Bft) 100,00 %
10.08.2019 03:22 19,3 C 18,3 C 17,8 C 86 % 1013,1 hPa 0,0 l/m 0 min 0 min 0 W/m 19,3 km/h (3 Bft) 97,87 %
10.08.2019 03:24 19,3 C 18,3 C 17,8 C 86 % 1013,2 hPa 0,0 l/m 0 min 0 min 0 W/m 16,1 km/h (3 Bft) 97,87 %
10.08.2019 03:26 19,3 C 18,3 C 17,8 C 86 % 1013,2 hPa 0,0 l/m 0 min 0 min 0 W/m 16,1 km/h (3 Bft) 100,00 %
10.08.2019 03:28 19,3 C 18,3 C 17,8 C 86 % 1013,1 hPa 0,0 l/m 0 min 0 min 0 W/m 16,1 km/h (3 Bft) 100,00 %
10.08.2019 03:30 19,3 C 18,3 C 17,8 C 86 % 1013,1 hPa 0,0 l/m 0 min 0 min 0 W/m 9,7 km/h (2 Bft) 97,87 %
10.08.2019 03:32 19,2 C 18,3 C 17,8 C 86 % 1013,1 hPa 0,0 l/m 0 min 0 min 0 W/m 12,9 km/h (3 Bft) 95,74 %
10.08.2019 03:34 19,2 C 18,3 C 17,8 C 86 % 1013,1 hPa 0,0 l/m 0 min 0 min 0 W/m 22,5 km/h (4 Bft) 95,74 %
10.08.2019 03:36 19,2 C 18,3 C 17,8 C 86 % 1013,1 hPa 0,0 l/m 0 min 0 min 0 W/m 16,1 km/h (3 Bft) 100,00 %
10.08.2019 03:38 19,2 C 18,3 C 17,8 C 86 % 1013,1 hPa 0,0 l/m 0 min 0 min 0 W/m 19,3 km/h (3 Bft) 100,00 %
10.08.2019 03:40 19,2 C 18,3 C 17,8 C 86 % 1013,1 hPa 0,0 l/m 0 min 0 min 0 W/m 19,3 km/h (3 Bft) 97,87 %
10.08.2019 03:42 19,2 C 18,3 C 17,8 C 86 % 1013,1 hPa 0,0 l/m 0 min 0 min 0 W/m 16,1 km/h (3 Bft) 97,87 %
10.08.2019 03:44 19,2 C 18,3 C 17,8 C 86 % 1013,1 hPa 0,0 l/m 0 min 0 min 0 W/m 9,7 km/h (2 Bft) 95,74 %
10.08.2019 03:46 19,2 C 18,3 C 17,8 C 86 % 1013,1 hPa 0,0 l/m 0 min 0 min 0 W/m 12,9 km/h (3 Bft) 97,87 %
10.08.2019 03:48 19,2 C 18,3 C 17,8 C 86 % 1013,1 hPa 0,0 l/m 0 min 0 min 0 W/m 12,9 km/h (3 Bft) 97,87 %
10.08.2019 03:50 19,2 C 18,3 C 17,8 C 86 % 1013,0 hPa 0,0 l/m 0 min 0 min 0 W/m 12,9 km/h (3 Bft) 97,83 %
10.08.2019 03:52 19,2 C 18,3 C 17,8 C 86 % 1013,0 hPa 0,0 l/m 0 min 0 min 0 W/m 16,1 km/h (3 Bft) 93,62 %
10.08.2019 03:54 19,2 C 18,3 C 17,8 C 86 % 1013,1 hPa 0,0 l/m 0 min 0 min 0 W/m 16,1 km/h (3 Bft) 93,62 %
10.08.2019 03:56 19,1 C 17,8 C 17,8 C 87 % 1013,1 hPa 0,0 l/m 0 min 0 min 0 W/m 12,9 km/h (3 Bft) 93,62 %
10.08.2019 03:58 19,1 C 18,3 C 17,8 C 87 % 1013,1 hPa 0,0 l/m 0 min 0 min 0 W/m 16,1 km/h (3 Bft) 93,62 %
10.08.2019 04:00 19,1 C 18,3 C 17,8 C 87 % 1013,1 hPa 0,0 l/m 0 min 0 min 0 W/m 19,3 km/h (3 Bft) 93,62 %
10.08.2019 04:05 19,1 C 18,3 C 17,8 C 87 % 1013,0 hPa 0,0 l/m 0 min 0 min 0 W/m 19,3 km/h (3 Bft) 98,21 %
10.08.2019 04:06 19,1 C 18,3 C 17,8 C 87 % 1013,0 hPa 0,0 l/m 0 min 0 min 0 W/m 9,7 km/h (2 Bft) 87,50 %
10.08.2019 04:08 19,1 C 18,3 C 17,8 C 87 % 1012,8 hPa 0,0 l/m 0 min 0 min 0 W/m 16,1 km/h (3 Bft) 93,62 %
10.08.2019 04:10 19,1 C 18,3 C 17,8 C 87 % 1012,8 hPa 0,0 l/m 0 min 0 min 0 W/m 12,9 km/h (3 Bft) 91,49 %
10.08.2019 04:12 19,1 C 18,3 C 17,8 C 87 % 1012,6 hPa 0,0 l/m 0 min 0 min 0 W/m 19,3 km/h (3 Bft) 89,36 %
10.08.2019 04:14 19,1 C 18,3 C 17,8 C 87 % 1012,7 hPa 0,0 l/m 0 min 0 min 0 W/m 12,9 km/h (3 Bft) 93,62 %
10.08.2019 04:16 19,1 C 18,3 C 17,8 C 87 % 1012,6 hPa 0,0 l/m 0 min 0 min 0 W/m 16,1 km/h (3 Bft) 93,48 %
10.08.2019 04:18 19,1 C 18,3 C 17,8 C 87 % 1012,5 hPa 0,0 l/m 0 min 0 min 0 W/m 12,9 km/h (3 Bft) 93,62 %
10.08.2019 04:20 19,1 C 18,3 C 17,8 C 87 % 1012,5 hPa 0,0 l/m 0 min 0 min 0 W/m 12,9 km/h (3 Bft) 93,62 %
10.08.2019 04:22 19,1 C 18,3 C 17,8 C 87 % 1012,5 hPa 0,0 l/m 0 min 0 min 0 W/m 16,1 km/h (3 Bft) 91,49 %
10.08.2019 04:24 19,0 C 18,3 C 17,8 C 87 % 1012,5 hPa 0,0 l/m 0 min 0 min 0 W/m 12,9 km/h (3 Bft) 89,36 %
10.08.2019 04:26 19,0 C 18,3 C 17,8 C 87 % 1012,5 hPa 0,0 l/m 0 min 0 min 0 W/m 22,5 km/h (4 Bft) 93,48 %
10.08.2019 04:28 19,0 C 18,3 C 17,8 C 87 % 1012,4 hPa 0,0 l/m 0 min 0 min 0 W/m 16,1 km/h (3 Bft) 93,62 %
10.08.2019 04:30 19,0 C 18,3 C 17,8 C 87 % 1012,5 hPa 0,0 l/m 0 min 0 min 0 W/m 16,1 km/h (3 Bft) 93,62 %
10.08.2019 04:32 19,0 C 18,3 C 17,8 C 87 % 1012,4 hPa 0,0 l/m 0 min 0 min 0 W/m 22,5 km/h (4 Bft) 93,62 %
10.08.2019 04:34 19,1 C 18,3 C 17,8 C 87 % 1012,3 hPa 0,0 l/m 0 min 0 min 0 W/m 22,5 km/h (4 Bft) 93,62 %
10.08.2019 04:36 19,1 C 18,9 C 18,3 C 87 % 1012,3 hPa 0,0 l/m 0 min 0 min 0 W/m 32,2 km/h (5 Bft) 97,87 %
10.08.2019 04:38 19,1 C 18,9 C 18,3 C 87 % 1012,3 hPa 0,0 l/m 0 min 0 min 0 W/m 16,1 km/h (3 Bft) 97,87 %
10.08.2019 04:40 19,1 C 18,3 C 18,3 C 87 % 1012,3 hPa 0,0 l/m 0 min 0 min 0 W/m 9,7 km/h (2 Bft) 97,83 %
10.08.2019 04:42 19,1 C 18,3 C 18,3 C 87 % 1012,2 hPa 0,0 l/m 0 min 0 min 0 W/m 16,1 km/h (3 Bft) 95,74 %
10.08.2019 04:44 19,1 C 18,3 C 18,3 C 87 % 1012,2 hPa 0,0 l/m 0 min 0 min 0 W/m 19,3 km/h (3 Bft) 97,87 %
10.08.2019 04:46 19,1 C 18,9 C 18,3 C 87 % 1012,3 hPa 0,0 l/m 0 min 0 min 0 W/m 19,3 km/h (3 Bft) 97,87 %
10.08.2019 04:48 19,2 C 18,9 C 18,3 C 87 % 1012,1 hPa 0,0 l/m 0 min 0 min 0 W/m 19,3 km/h (3 Bft) 97,87 %
10.08.2019 04:50 19,2 C 18,9 C 18,3 C 86 % 1012,1 hPa 0,0 l/m 0 min 0 min 0 W/m 19,3 km/h (3 Bft) 97,83 %
10.08.2019 04:52 19,2 C 18,9 C 18,3 C 86 % 1012,1 hPa 0,0 l/m 0 min 0 min 0 W/m 16,1 km/h (3 Bft) 95,74 %
10.08.2019 04:54 19,2 C 18,9 C 18,3 C 86 % 1012,1 hPa 0,0 l/m 0 min 0 min 0 W/m 19,3 km/h (3 Bft) 100,00 %
10.08.2019 04:56 19,2 C 18,9 C 18,3 C 86 % 1012,1 hPa 0,0 l/m 0 min 0 min 0 W/m 22,5 km/h (4 Bft) 95,74 %
10.08.2019 04:58 19,2 C 18,9 C 18,3 C 86 % 1012,1 hPa 0,0 l/m 0 min 0 min 0 W/m 16,1 km/h (3 Bft) 100,00 %
10.08.2019 05:00 19,2 C 18,9 C 18,3 C 86 % 1012,0 hPa 0,0 l/m 0 min 0 min 0 W/m 25,7 km/h (4 Bft) 97,87 %
10.08.2019 05:02 19,3 C 18,9 C 18,3 C 86 % 1012,0 hPa 0,0 l/m 0 min 0 min 0 W/m 19,3 km/h (3 Bft) 100,00 %
10.08.2019 05:04 19,3 C 18,9 C 18,3 C 86 % 1011,9 hPa 0,0 l/m 0 min 0 min 0 W/m 19,3 km/h (3 Bft) 100,00 %
10.08.2019 05:06 19,3 C 18,9 C 18,3 C 86 % 1011,9 hPa 0,0 l/m 0 min 0 min 0 W/m 25,7 km/h (4 Bft) 97,87 %
10.08.2019 05:08 19,3 C 18,9 C 18,3 C 85 % 1012,0 hPa 0,0 l/m 0 min 0 min 0 W/m 22,5 km/h (4 Bft) 100,00 %
10.08.2019 05:10 19,3 C 18,9 C 18,3 C 85 % 1011,9 hPa 0,0 l/m 0 min 0 min 0 W/m 32,2 km/h (5 Bft) 95,74 %
10.08.2019 05:12 19,3 C 18,9 C 18,3 C 85 % 1011,9 hPa 0,0 l/m 0 min 0 min 0 W/m 22,5 km/h (4 Bft) 97,87 %
10.08.2019 05:14 19,3 C 18,9 C 18,3 C 85 % 1011,9 hPa 0,0 l/m 0 min 0 min 0 W/m 22,5 km/h (4 Bft) 100,00 %
10.08.2019 05:16 19,3 C 18,9 C 18,3 C 85 % 1011,9 hPa 0,0 l/m 0 min 0 min 0 W/m 38,6 km/h (5 Bft) 100,00 %
10.08.2019 05:18 19,4 C 18,9 C 18,3 C 84 % 1011,9 hPa 0,0 l/m 0 min 0 min 0 W/m 19,3 km/h (3 Bft) 100,00 %
10.08.2019 05:20 19,4 C 18,9 C 18,3 C 84 % 1011,8 hPa 0,0 l/m 0 min 0 min 0 W/m 19,3 km/h (3 Bft) 97,87 %
10.08.2019 05:22 19,4 C 18,9 C 18,3 C 84 % 1011,8 hPa 0,0 l/m 0 min 0 min 0 W/m 22,5 km/h (4 Bft) 95,74 %
10.08.2019 05:24 19,4 C 18,9 C 18,3 C 84 % 1011,8 hPa 0,0 l/m 0 min 0 min 0 W/m 19,3 km/h (3 Bft) 100,00 %
10.08.2019 05:26 19,4 C 18,9 C 18,3 C 84 % 1011,8 hPa 0,0 l/m 0 min 0 min 0 W/m 29,0 km/h (5 Bft) 100,00 %
10.08.2019 05:28 19,4 C 18,3 C 18,3 C 84 % 1011,7 hPa 0,0 l/m 0 min 0 min 0 W/m 16,1 km/h (3 Bft) 97,87 %
10.08.2019 05:30 19,4 C 18,3 C 18,3 C 84 % 1011,7 hPa 0,0 l/m 0 min 0 min 0 W/m 16,1 km/h (3 Bft) 100,00 %
10.08.2019 05:32 19,4 C 18,3 C 18,3 C 84 % 1011,7 hPa 0,0 l/m 0 min 0 min 0 W/m 25,7 km/h (4 Bft) 100,00 %
10.08.2019 05:34 19,4 C 18,9 C 18,3 C 84 % 1011,6 hPa 0,0 l/m 0 min 0 min 0 W/m 25,7 km/h (4 Bft) 100,00 %
10.08.2019 05:36 19,4 C 18,9 C 18,3 C 83 % 1011,5 hPa 0,0 l/m 0 min 0 min 0 W/m 22,5 km/h (4 Bft) 100,00 %
10.08.2019 05:38 19,4 C 18,9 C 18,3 C 83 % 1011,5 hPa 0,0 l/m 0 min 0 min 0 W/m 19,3 km/h (3 Bft) 100,00 %
10.08.2019 05:40 19,4 C 18,9 C 18,3 C 83 % 1011,5 hPa 0,0 l/m 0 min 0 min 0 W/m 32,2 km/h (5 Bft) 97,87 %
10.08.2019 05:42 19,4 C 18,9 C 18,3 C 83 % 1011,5 hPa 0,0 l/m 0 min 0 min 0 W/m 19,3 km/h (3 Bft) 100,00 %
10.08.2019 05:44 19,4 C 18,9 C 18,3 C 83 % 1011,5 hPa 0,0 l/m 0 min 0 min 0 W/m 19,3 km/h (3 Bft) 100,00 %
10.08.2019 05:46 19,4 C 18,9 C 18,3 C 83 % 1011,4 hPa 0,0 l/m 0 min 0 min 0 W/m 32,2 km/h (5 Bft) 97,87 %
10.08.2019 05:48 19,4 C 18,9 C 18,3 C 82 % 1011,3 hPa 0,0 l/m 0 min 0 min 0 W/m 25,7 km/h (4 Bft) 100,00 %
10.08.2019 05:50 19,4 C 18,9 C 18,3 C 82 % 1011,4 hPa 0,0 l/m 0 min 0 min 0 W/m 25,7 km/h (4 Bft) 100,00 %
10.08.2019 05:52 19,4 C 18,9 C 18,3 C 82 % 1011,4 hPa 0,0 l/m 0 min 0 min 0 W/m 38,6 km/h (5 Bft) 97,87 %
10.08.2019 05:54 19,5 C 18,9 C 18,3 C 82 % 1011,3 hPa 0,0 l/m 0 min 0 min 0 W/m 22,5 km/h (4 Bft) 100,00 %
10.08.2019 05:56 19,5 C 18,9 C 18,3 C 82 % 1011,3 hPa 0,0 l/m 0 min 0 min 0 W/m 19,3 km/h (3 Bft) 100,00 %
10.08.2019 05:58 19,5 C 18,9 C 18,3 C 82 % 1011,3 hPa 0,0 l/m 0 min 0 min 0 W/m 16,1 km/h (3 Bft) 100,00 %
10.08.2019 06:00 19,5 C 18,9 C 18,3 C 82 % 1011,3 hPa 0,0 l/m 0 min 0 min 0 W/m 22,5 km/h (4 Bft) 100,00 %
10.08.2019 06:02 19,5 C 18,9 C 18,3 C 82 % 1011,2 hPa 0,0 l/m 0 min 0 min 0 W/m 19,3 km/h (3 Bft) 100,00 %
10.08.2019 06:04 19,5 C 18,9 C 18,3 C 82 % 1011,2 hPa 0,0 l/m 0 min 0 min 0 W/m 29,0 km/h (5 Bft) 100,00 %
10.08.2019 06:08 19,5 C 18,9 C 18,3 C 82 % 1011,2 hPa 0,0 l/m 0 min 0 min 0 W/m 29,0 km/h (5 Bft) 100,00 %
10.08.2019 06:10 19,5 C 18,3 C 18,3 C 82 % 1011,2 hPa 0,0 l/m 0 min 0 min 0 W/m 25,7 km/h (4 Bft) 100,00 %
10.08.2019 06:12 19,5 C 18,3 C 18,3 C 81 % 1011,2 hPa 0,0 l/m 0 min 0 min 0 W/m 19,3 km/h (3 Bft) 97,83 %
10.08.2019 06:14 19,5 C 18,3 C 18,3 C 81 % 1011,3 hPa 0,0 l/m 0 min 0 min 0 W/m 19,3 km/h (3 Bft) 100,00 %
10.08.2019 06:16 19,4 C 18,3 C 18,3 C 81 % 1011,2 hPa 0,0 l/m 0 min 0 min 0 W/m 19,3 km/h (3 Bft) 100,00 %
10.08.2019 06:18 19,4 C 18,3 C 18,3 C 81 % 1011,2 hPa 0,0 l/m 0 min 0 min 2 W/m 29,0 km/h (5 Bft) 100,00 %
10.08.2019 06:20 19,4 C 18,3 C 18,3 C 81 % 1011,2 hPa 0,0 l/m 0 min 0 min 5 W/m 25,7 km/h (4 Bft) 100,00 %
10.08.2019 06:22 19,4 C 18,9 C 18,3 C 81 % 1011,2 hPa 0,0 l/m 0 min 0 min 5 W/m 25,7 km/h (4 Bft) 100,00 %
10.08.2019 06:24 19,4 C 18,3 C 18,3 C 81 % 1011,2 hPa 0,0 l/m 0 min 0 min 6 W/m 19,3 km/h (3 Bft) 97,83 %
10.08.2019 06:26 19,4 C 18,3 C 18,3 C 81 % 1011,2 hPa 0,0 l/m 0 min 0 min 7 W/m 22,5 km/h (4 Bft) 100,00 %
10.08.2019 06:28 19,4 C 18,3 C 18,3 C 81 % 1011,2 hPa 0,0 l/m 0 min 0 min 8 W/m 19,3 km/h (3 Bft) 95,74 %
10.08.2019 06:30 19,4 C 18,3 C 18,3 C 81 % 1011,1 hPa 0,0 l/m 0 min 0 min 9 W/m 19,3 km/h (3 Bft) 95,74 %
10.08.2019 06:32 19,4 C 18,3 C 18,3 C 81 % 1011,1 hPa 0,0 l/m 0 min 0 min 9 W/m 19,3 km/h (3 Bft) 97,87 %
10.08.2019 06:34 19,4 C 18,3 C 17,8 C 81 % 1011,1 hPa 0,0 l/m 0 min 0 min 9 W/m 12,9 km/h (3 Bft) 97,87 %
10.08.2019 06:36 19,4 C 18,3 C 17,8 C 81 % 1011,1 hPa 0,0 l/m 0 min 0 min 11 W/m 22,5 km/h (4 Bft) 93,48 %
10.08.2019 06:38 19,3 C 18,3 C 17,8 C 81 % 1011,2 hPa 0,0 l/m 0 min 0 min 11 W/m 19,3 km/h (3 Bft) 95,74 %
10.08.2019 06:40 19,3 C 18,3 C 17,8 C 81 % 1011,2 hPa 0,0 l/m 0 min 0 min 12 W/m 16,1 km/h (3 Bft) 97,87 %
10.08.2019 06:42 19,3 C 18,3 C 17,8 C 81 % 1011,1 hPa 0,0 l/m 0 min 0 min 12 W/m 22,5 km/h (4 Bft) 95,74 %
10.08.2019 06:44 19,3 C 18,3 C 18,3 C 81 % 1011,1 hPa 0,0 l/m 0 min 0 min 12 W/m 22,5 km/h (4 Bft) 93,62 %
10.08.2019 06:46 19,3 C 18,3 C 18,3 C 81 % 1011,2 hPa 0,0 l/m 0 min 0 min 14 W/m 32,2 km/h (5 Bft) 93,48 %
10.08.2019 06:48 19,3 C 18,3 C 18,3 C 81 % 1011,2 hPa 0,0 l/m 0 min 0 min 14 W/m 16,1 km/h (3 Bft) 95,74 %
10.08.2019 06:50 19,3 C 18,3 C 18,3 C 81 % 1011,2 hPa 0,0 l/m 0 min 0 min 14 W/m 22,5 km/h (4 Bft) 95,74 %
10.08.2019 06:52 19,3 C 18,3 C 18,3 C 81 % 1011,1 hPa 0,0 l/m 0 min 0 min 16 W/m 12,9 km/h (3 Bft) 93,62 %
10.08.2019 06:54 19,3 C 18,3 C 17,8 C 81 % 1011,1 hPa 0,0 l/m 0 min 0 min 16 W/m 19,3 km/h (3 Bft) 95,74 %
10.08.2019 06:56 19,3 C 18,3 C 17,8 C 81 % 1011,1 hPa 0,0 l/m 0 min 0 min 16 W/m 19,3 km/h (3 Bft) 95,74 %
10.08.2019 06:58 19,3 C 18,9 C 18,3 C 81 % 1011,1 hPa 0,0 l/m 0 min 0 min 18 W/m 25,7 km/h (4 Bft) 95,65 %
10.08.2019 07:00 19,3 C 18,9 C 18,3 C 81 % 1011,0 hPa 0,0 l/m 0 min 0 min 18 W/m 25,7 km/h (4 Bft) 93,62 %
10.08.2019 07:02 19,3 C 18,9 C 18,3 C 81 % 1010,9 hPa 0,0 l/m 0 min 0 min 19 W/m 25,7 km/h (4 Bft) 95,74 %
10.08.2019 07:04 19,3 C 18,9 C 18,3 C 81 % 1011,0 hPa 0,0 l/m 0 min 0 min 19 W/m 16,1 km/h (3 Bft) 95,74 %
10.08.2019 07:06 19,3 C 18,9 C 18,3 C 81 % 1010,9 hPa 0,0 l/m 0 min 0 min 19 W/m 22,5 km/h (4 Bft) 95,74 %
10.08.2019 07:08 19,3 C 18,9 C 18,3 C 81 % 1011,0 hPa 0,0 l/m 0 min 0 min 20 W/m 16,1 km/h (3 Bft) 93,62 %
10.08.2019 07:10 19,3 C 18,9 C 18,3 C 81 % 1011,0 hPa 0,0 l/m 0 min 0 min 21 W/m 19,3 km/h (3 Bft) 95,65 %
10.08.2019 07:12 19,3 C 18,9 C 18,3 C 81 % 1011,0 hPa 0,0 l/m 0 min 0 min 21 W/m 22,5 km/h (4 Bft) 97,87 %
10.08.2019 07:14 19,3 C 18,9 C 18,3 C 81 % 1011,0 hPa 0,0 l/m 0 min 0 min 22 W/m 25,7 km/h (4 Bft) 97,87 %
10.08.2019 07:16 19,3 C 18,9 C 18,3 C 81 % 1011,0 hPa 0,0 l/m 0 min 0 min 23 W/m 19,3 km/h (3 Bft) 95,74 %
10.08.2019 07:18 19,3 C 18,9 C 18,3 C 81 % 1011,1 hPa 0,0 l/m 0 min 0 min 23 W/m 25,7 km/h (4 Bft) 95,74 %
10.08.2019 07:20 19,3 C 18,9 C 18,3 C 81 % 1011,0 hPa 0,0 l/m 0 min 0 min 24 W/m 25,7 km/h (4 Bft) 91,49 %
10.08.2019 07:22 19,3 C 18,9 C 18,3 C 81 % 1011,1 hPa 0,0 l/m 0 min 0 min 25 W/m 25,7 km/h (4 Bft) 93,48 %
10.08.2019 07:24 19,3 C 18,9 C 18,3 C 81 % 1011,1 hPa 0,0 l/m 0 min 0 min 25 W/m 25,7 km/h (4 Bft) 93,62 %
10.08.2019 07:26 19,4 C 18,9 C 18,3 C 81 % 1011,0 hPa 0,0 l/m 0 min 0 min 25 W/m 25,7 km/h (4 Bft) 95,74 %
10.08.2019 07:28 19,4 C 18,9 C 18,3 C 81 % 1011,0 hPa 0,0 l/m 0 min 0 min 26 W/m 16,1 km/h (3 Bft) 95,74 %
10.08.2019 07:30 19,4 C 18,9 C 18,3 C 81 % 1010,9 hPa 0,0 l/m 0 min 0 min 26 W/m 19,3 km/h (3 Bft) 95,74 %
10.08.2019 07:32 19,4 C 18,9 C 18,3 C 81 % 1011,0 hPa 0,0 l/m 0 min 0 min 26 W/m 22,5 km/h (4 Bft) 95,74 %
10.08.2019 07:34 19,4 C 18,9 C 18,3 C 81 % 1010,8 hPa 0,0 l/m 0 min 0 min 28 W/m 19,3 km/h (3 Bft) 95,65 %
10.08.2019 07:36 19,4 C 18,9 C 18,3 C 81 % 1010,9 hPa 0,0 l/m 0 min 0 min 28 W/m 25,7 km/h (4 Bft) 93,62 %
10.08.2019 07:38 19,4 C 18,9 C 18,3 C 81 % 1011,0 hPa 0,0 l/m 0 min 0 min 28 W/m 25,7 km/h (4 Bft) 93,62 %
10.08.2019 07:40 19,4 C 18,9 C 18,3 C 80 % 1010,9 hPa 0,0 l/m 0 min 0 min 30 W/m 38,6 km/h (5 Bft) 97,87 %
10.08.2019 07:42 19,4 C 18,9 C 18,3 C 80 % 1010,9 hPa 0,0 l/m 0 min 0 min 30 W/m 22,5 km/h (4 Bft) 97,87 %
10.08.2019 07:44 19,4 C 18,9 C 18,3 C 80 % 1010,9 hPa 0,0 l/m 0 min 0 min 31 W/m 22,5 km/h (4 Bft) 97,87 %
10.08.2019 07:46 19,5 C 18,9 C 18,3 C 80 % 1010,8 hPa 0,0 l/m 0 min 0 min 32 W/m 25,7 km/h (4 Bft) 97,83 %
10.08.2019 07:48 19,5 C 18,9 C 18,3 C 80 % 1010,9 hPa 0,0 l/m 0 min 0 min 33 W/m 38,6 km/h (5 Bft) 97,87 %
10.08.2019 07:50 19,6 C 18,9 C 18,9 C 80 % 1010,9 hPa 0,0 l/m 0 min 0 min 33 W/m 22,5 km/h (4 Bft) 97,87 %
10.08.2019 07:52 19,6 C 19,4 C 18,9 C 80 % 1011,0 hPa 0,0 l/m 0 min 0 min 35 W/m 35,4 km/h (5 Bft) 97,87 %
10.08.2019 07:54 19,6 C 19,4 C 18,9 C 80 % 1011,0 hPa 0,0 l/m 0 min 0 min 35 W/m 29,0 km/h (5 Bft) 97,87 %
10.08.2019 07:56 19,6 C 19,4 C 18,9 C 80 % 1010,8 hPa 0,0 l/m 0 min 0 min 35 W/m 25,7 km/h (4 Bft) 97,83 %
10.08.2019 07:58 19,6 C 19,4 C 18,9 C 79 % 1010,8 hPa 0,2 l/m 0 min 0 min 37 W/m 32,2 km/h (5 Bft) 97,87 %
10.08.2019 08:00 19,7 C 19,4 C 18,9 C 79 % 1011,0 hPa 0,0 l/m 0 min 0 min 38 W/m 35,4 km/h (5 Bft) 97,87 %
10.08.2019 08:02 19,7 C 19,4 C 18,9 C 79 % 1010,9 hPa 0,0 l/m 0 min 0 min 38 W/m 29,0 km/h (5 Bft) 97,87 %
10.08.2019 08:04 19,7 C 19,4 C 18,9 C 79 % 1011,0 hPa 0,0 l/m 0 min 0 min 39 W/m 25,7 km/h (4 Bft) 97,87 %
10.08.2019 08:06 19,7 C 19,4 C 18,9 C 79 % 1010,9 hPa 0,0 l/m 0 min 0 min 40 W/m 35,4 km/h (5 Bft) 97,87 %
10.08.2019 08:08 19,8 C 19,4 C 18,9 C 79 % 1011,0 hPa 0,0 l/m 0 min 0 min 40 W/m 29,0 km/h (5 Bft) 97,87 %
10.08.2019 08:10 19,8 C 19,4 C 18,9 C 79 % 1011,0 hPa 0,0 l/m 0 min 0 min 41 W/m 22,5 km/h (4 Bft) 95,65 %
10.08.2019 08:12 19,8 C 19,4 C 18,9 C 79 % 1010,8 hPa 0,0 l/m 0 min 0 min 42 W/m 35,4 km/h (5 Bft) 100,00 %
10.08.2019 08:14 19,9 C 19,4 C 18,9 C 78 % 1010,9 hPa 0,0 l/m 0 min 0 min 42 W/m 32,2 km/h (5 Bft) 100,00 %
10.08.2019 08:16 19,9 C 19,4 C 18,9 C 78 % 1010,9 hPa 0,0 l/m 0 min 0 min 44 W/m 29,0 km/h (5 Bft) 100,00 %
10.08.2019 08:18 19,9 C 19,4 C 18,9 C 78 % 1011,0 hPa 0,0 l/m 0 min 0 min 45 W/m 35,4 km/h (5 Bft) 100,00 %
10.08.2019 08:20 19,9 C 19,4 C 18,9 C 78 % 1011,0 hPa 0,0 l/m 0 min 0 min 46 W/m 22,5 km/h (4 Bft) 97,87 %
10.08.2019 08:22 20,0 C 19,4 C 18,9 C 78 % 1011,0 hPa 0,0 l/m 0 min 0 min 47 W/m 35,4 km/h (5 Bft) 100,00 %
10.08.2019 08:24 20,0 C 19,4 C 18,9 C 78 % 1011,0 hPa 0,0 l/m 0 min 0 min 47 W/m 22,5 km/h (4 Bft) 97,87 %
10.08.2019 08:26 20,1 C 20,0 C 19,4 C 78 % 1011,0 hPa 0,0 l/m 0 min 0 min 48 W/m 16,1 km/h (3 Bft) 100,00 %
10.08.2019 08:28 20,1 C 20,0 C 19,4 C 77 % 1011,0 hPa 0,0 l/m 0 min 0 min 50 W/m 32,2 km/h (5 Bft) 97,87 %
10.08.2019 08:30 20,1 C 20,0 C 19,4 C 78 % 1010,9 hPa 0,0 l/m 0 min 0 min 51 W/m 22,5 km/h (4 Bft) 100,00 %
10.08.2019 08:32 20,1 C 20,0 C 19,4 C 77 % 1011,0 hPa 0,0 l/m 0 min 0 min 62 W/m 25,7 km/h (4 Bft) 100,00 %
10.08.2019 08:34 20,2 C 20,0 C 19,4 C 77 % 1011,0 hPa 0,0 l/m 0 min 0 min 95 W/m 22,5 km/h (4 Bft) 100,00 %
10.08.2019 08:36 20,2 C 21,1 C 19,4 C 77 % 1010,9 hPa 0,0 l/m 0 min 0 min 122 W/m 25,7 km/h (4 Bft) 100,00 %
10.08.2019 08:38 20,2 C 22,2 C 19,4 C 77 % 1010,9 hPa 0,0 l/m 0 min 0 min 151 W/m 41,8 km/h (6 Bft) 100,00 %
10.08.2019 08:40 20,3 C 22,2 C 19,4 C 76 % 1010,9 hPa 0,0 l/m 0 min 0 min 174 W/m 48,3 km/h (6 Bft) 100,00 %
10.08.2019 08:42 20,4 C 22,2 C 19,4 C 76 % 1011,0 hPa 0,0 l/m 2 min 0 min 193 W/m 41,8 km/h (6 Bft) 95,74 %
10.08.2019 08:44 20,5 C 22,2 C 19,4 C 76 % 1011,0 hPa 0,0 l/m 2 min 0 min 230 W/m 48,3 km/h (6 Bft) 97,83 %
10.08.2019 08:46 20,6 C 22,2 C 19,4 C 75 % 1010,9 hPa 0,0 l/m 2 min 0 min 250 W/m 51,5 km/h (7 Bft) 100,00 %
10.08.2019 08:48 20,7 C 21,7 C 19,4 C 75 % 1010,9 hPa 0,0 l/m 2 min 0 min 272 W/m 32,2 km/h (5 Bft) 100,00 %
10.08.2019 08:50 20,7 C 21,1 C 19,4 C 75 % 1010,8 hPa 0,0 l/m 0 min 0 min 135 W/m 32,2 km/h (5 Bft) 100,00 %
10.08.2019 08:52 20,7 C 21,1 C 19,4 C 75 % 1010,9 hPa 0,0 l/m 0 min 0 min 82 W/m 32,2 km/h (5 Bft) 97,87 %
10.08.2019 08:54 20,7 C 22,8 C 19,4 C 75 % 1010,9 hPa 0,0 l/m 2 min 0 min 343 W/m 25,7 km/h (4 Bft) 97,83 %
10.08.2019 08:56 20,8 C 22,8 C 20,0 C 75 % 1010,8 hPa 0,0 l/m 2 min 0 min 357 W/m 25,7 km/h (4 Bft) 97,87 %
10.08.2019 08:58 20,9 C 22,8 C 20,0 C 75 % 1010,8 hPa 0,0 l/m 2 min 0 min 231 W/m 38,6 km/h (5 Bft) 95,74 %
10.08.2019 09:00 20,9 C 21,1 C 20,0 C 74 % 1011,0 hPa 0,0 l/m 0 min 0 min 113 W/m 38,6 km/h (5 Bft) 97,87 %
10.08.2019 09:02 20,9 C 22,8 C 20,0 C 74 % 1010,6 hPa 0,0 l/m 0 min 0 min 189 W/m 25,7 km/h (4 Bft) 100,00 %
10.08.2019 09:04 21,0 C 23,3 C 20,6 C 74 % 1010,8 hPa 0,0 l/m 2 min 0 min 381 W/m 29,0 km/h (5 Bft) 97,87 %
10.08.2019 09:06 21,1 C 23,3 C 21,1 C 74 % 1010,6 hPa 0,0 l/m 2 min 0 min 384 W/m 38,6 km/h (5 Bft) 97,83 %
10.08.2019 09:08 21,2 C 22,8 C 22,2 C 73 % 1010,9 hPa 0,0 l/m 2 min 0 min 302 W/m 45,1 km/h (6 Bft) 97,87 %
10.08.2019 09:10 21,2 C 21,7 C 21,1 C 73 % 1010,6 hPa 0,0 l/m 0 min 0 min 125 W/m 25,7 km/h (4 Bft) 97,87 %
10.08.2019 09:12 21,2 C 22,2 C 21,1 C 73 % 1010,7 hPa 0,0 l/m 0 min 0 min 133 W/m 25,7 km/h (4 Bft) 93,62 %
10.08.2019 09:14 21,3 C 23,3 C 22,8 C 73 % 1010,7 hPa 0,0 l/m 2 min 0 min 394 W/m 25,7 km/h (4 Bft) 97,87 %
10.08.2019 09:16 21,3 C 22,8 C 22,2 C 73 % 1011,0 hPa 0,0 l/m 2 min 0 min 334 W/m 32,2 km/h (5 Bft) 97,87 %
10.08.2019 09:18 21,3 C 23,3 C 22,8 C 73 % 1010,6 hPa 0,0 l/m 0 min 0 min 199 W/m 25,7 km/h (4 Bft) 95,65 %
10.08.2019 09:20 21,4 C 22,2 C 21,7 C 72 % 1010,5 hPa 0,0 l/m 0 min 0 min 172 W/m 32,2 km/h (5 Bft) 97,87 %
10.08.2019 09:22 21,4 C 21,1 C 21,1 C 72 % 1010,9 hPa 0,0 l/m 0 min 0 min 114 W/m 45,1 km/h (6 Bft) 97,87 %
10.08.2019 09:24 21,4 C 21,1 C 20,6 C 72 % 1010,8 hPa 0,0 l/m 0 min 0 min 104 W/m 29,0 km/h (5 Bft) 97,87 %
10.08.2019 09:26 21,3 C 21,1 C 20,6 C 72 % 1010,8 hPa 0,0 l/m 0 min 0 min 112 W/m 29,0 km/h (5 Bft) 97,87 %
10.08.2019 09:28 21,3 C 21,7 C 21,1 C 72 % 1010,7 hPa 0,0 l/m 0 min 0 min 138 W/m 32,2 km/h (5 Bft) 97,87 %
10.08.2019 09:30 21,3 C 22,8 C 22,2 C 72 % 1010,7 hPa 0,0 l/m 2 min 0 min 239 W/m 22,5 km/h (4 Bft) 97,83 %
10.08.2019 09:32 21,3 C 23,9 C 23,3 C 73 % 1010,7 hPa 0,0 l/m 2 min 0 min 251 W/m 19,3 km/h (3 Bft) 97,87 %
10.08.2019 09:34 21,4 C 22,2 C 22,2 C 73 % 1010,7 hPa 0,0 l/m 0 min 0 min 217 W/m 41,8 km/h (6 Bft) 97,87 %
10.08.2019 09:36 21,4 C 22,2 C 22,2 C 72 % 1010,7 hPa 0,0 l/m 0 min 0 min 173 W/m 51,5 km/h (7 Bft) 95,74 %
10.08.2019 09:38 21,4 C 22,2 C 21,7 C 72 % 1010,7 hPa 0,0 l/m 0 min 0 min 149 W/m 29,0 km/h (5 Bft) 97,87 %
10.08.2019 09:40 21,4 C 22,2 C 21,7 C 72 % 1010,6 hPa 0,0 l/m 0 min 0 min 180 W/m 25,7 km/h (4 Bft) 97,87 %
10.08.2019 09:42 21,4 C 22,8 C 22,8 C 72 % 1010,8 hPa 0,0 l/m 2 min 0 min 439 W/m 32,2 km/h (5 Bft) 95,65 %
10.08.2019 09:44 21,5 C 23,9 C 23,9 C 72 % 1010,6 hPa 0,0 l/m 2 min 0 min 563 W/m 45,1 km/h (6 Bft) 97,87 %
10.08.2019 09:46 21,6 C 24,4 C 25,0 C 72 % 1010,7 hPa 0,0 l/m 2 min 0 min 563 W/m 25,7 km/h (4 Bft) 100,00 %
10.08.2019 09:48 21,7 C 23,3 C 23,9 C 72 % 1010,6 hPa 0,0 l/m 2 min 0 min 563 W/m 45,1 km/h (6 Bft) 100,00 %
10.08.2019 09:50 21,8 C 23,3 C 23,3 C 71 % 1010,6 hPa 0,0 l/m 2 min 0 min 581 W/m 29,0 km/h (5 Bft) 97,87 %
10.08.2019 09:52 21,8 C 23,9 C 23,9 C 71 % 1010,5 hPa 0,0 l/m 0 min 0 min 183 W/m 19,3 km/h (3 Bft) 95,74 %
10.08.2019 09:54 21,9 C 23,9 C 24,4 C 71 % 1010,5 hPa 0,0 l/m 2 min 0 min 557 W/m 25,7 km/h (4 Bft) 97,83 %
10.08.2019 09:56 21,9 C 23,3 C 23,9 C 72 % 1010,6 hPa 0,0 l/m 2 min 0 min 533 W/m 35,4 km/h (5 Bft) 100,00 %
10.08.2019 09:58 22,0 C 22,8 C 22,8 C 71 % 1010,5 hPa 0,0 l/m 2 min 0 min 492 W/m 38,6 km/h (5 Bft) 95,74 %
10.08.2019 10:00 22,1 C 23,9 C 23,9 C 71 % 1010,4 hPa 0,0 l/m 2 min 0 min 333 W/m 35,4 km/h (5 Bft) 97,87 %
10.08.2019 10:02 22,1 C 23,3 C 22,8 C 71 % 1010,6 hPa 0,0 l/m 2 min 0 min 679 W/m 25,7 km/h (4 Bft) 97,87 %
10.08.2019 10:04 22,1 C 22,8 C 22,2 C 71 % 1010,5 hPa 0,0 l/m 2 min 0 min 300 W/m 16,1 km/h (3 Bft) 97,83 %
10.08.2019 10:06 22,1 C 22,2 C 22,2 C 71 % 1010,7 hPa 0,0 l/m 0 min 0 min 209 W/m 41,8 km/h (6 Bft) 97,87 %
10.08.2019 10:08 22,1 C 23,9 C 23,3 C 71 % 1010,5 hPa 0,0 l/m 0 min 0 min 209 W/m 35,4 km/h (5 Bft) 97,87 %
10.08.2019 10:10 22,1 C 24,4 C 24,4 C 71 % 1010,4 hPa 0,0 l/m 0 min 0 min 209 W/m 32,2 km/h (5 Bft) 95,74 %
10.08.2019 10:12 22,2 C 24,4 C 24,4 C 71 % 1010,4 hPa 0,0 l/m 0 min 0 min 209 W/m 22,5 km/h (4 Bft) 97,87 %
10.08.2019 10:14 22,2 C 23,3 C 23,3 C 71 % 1010,4 hPa 0,0 l/m 0 min 0 min 188 W/m 29,0 km/h (5 Bft) 97,87 %
10.08.2019 10:16 22,3 C 24,4 C 24,4 C 70 % 1010,5 hPa 0,0 l/m 2 min 0 min 503 W/m 29,0 km/h (5 Bft) 97,83 %
10.08.2019 10:18 22,3 C 23,3 C 22,8 C 70 % 1010,5 hPa 0,0 l/m 2 min 0 min 705 W/m 45,1 km/h (6 Bft) 97,87 %
10.08.2019 10:20 22,3 C 22,8 C 22,2 C 70 % 1010,4 hPa 0,0 l/m 0 min 0 min 252 W/m 25,7 km/h (4 Bft) 97,87 %
10.08.2019 10:22 22,3 C 22,2 C 22,2 C 70 % 1010,6 hPa 0,0 l/m 0 min 0 min 174 W/m 32,2 km/h (5 Bft) 95,74 %
10.08.2019 10:24 22,3 C 23,9 C 23,3 C 70 % 1010,3 hPa 0,0 l/m 0 min 0 min 204 W/m 22,5 km/h (4 Bft) 95,74 %
10.08.2019 10:26 22,3 C 22,8 C 22,8 C 70 % 1010,7 hPa 0,0 l/m 0 min 0 min 216 W/m 32,2 km/h (5 Bft) 97,87 %
10.08.2019 10:28 22,3 C 23,9 C 23,3 C 70 % 1010,6 hPa 0,0 l/m 0 min 0 min 286 W/m 32,2 km/h (5 Bft) 95,65 %
10.08.2019 10:30 22,2 C 23,3 C 23,3 C 69 % 1010,5 hPa 0,0 l/m 2 min 0 min 655 W/m 61,2 km/h (7 Bft) 95,74 %
10.08.2019 10:32 22,2 C 23,3 C 22,8 C 70 % 1010,5 hPa 0,0 l/m 2 min 0 min 505 W/m 32,2 km/h (5 Bft) 93,62 %
10.08.2019 10:34 22,3 C 23,9 C 23,3 C 70 % 1010,5 hPa 0,0 l/m 2 min 0 min 606 W/m 25,7 km/h (4 Bft) 95,74 %
10.08.2019 10:36 22,4 C 23,3 C 22,8 C 70 % 1010,5 hPa 0,0 l/m 2 min 0 min 360 W/m 29,0 km/h (5 Bft) 95,74 %
10.08.2019 10:38 22,4 C 22,8 C 22,2 C 69 % 1010,5 hPa 0,0 l/m 0 min 0 min 194 W/m 25,7 km/h (4 Bft) 95,74 %
10.08.2019 10:40 22,4 C 23,3 C 22,8 C 69 % 1010,6 hPa 0,0 l/m 0 min 0 min 179 W/m 25,7 km/h (4 Bft) 95,65 %
10.08.2019 10:42 22,4 C 22,8 C 22,2 C 69 % 1010,5 hPa 0,0 l/m 0 min 0 min 183 W/m 19,3 km/h (3 Bft) 95,74 %
10.08.2019 10:44 22,4 C 22,8 C 22,2 C 69 % 1010,6 hPa 0,0 l/m 0 min 0 min 228 W/m 22,5 km/h (4 Bft) 95,74 %
10.08.2019 10:46 22,4 C 22,8 C 22,2 C 69 % 1010,5 hPa 0,0 l/m 0 min 0 min 216 W/m 29,0 km/h (5 Bft) 93,62 %
10.08.2019 10:48 22,4 C 23,9 C 23,3 C 69 % 1010,5 hPa 0,0 l/m 0 min 0 min 202 W/m 45,1 km/h (6 Bft) 95,74 %
10.08.2019 10:50 22,4 C 24,4 C 23,9 C 69 % 1010,5 hPa 0,0 l/m 0 min 0 min 202 W/m 25,7 km/h (4 Bft) 91,49 %
10.08.2019 10:52 22,5 C 24,4 C 23,9 C 69 % 1010,4 hPa 0,0 l/m 0 min 0 min 215 W/m 22,5 km/h (4 Bft) 95,65 %
10.08.2019 10:54 22,6 C 23,3 C 23,3 C 68 % 1010,6 hPa 0,0 l/m 0 min 0 min 207 W/m 19,3 km/h (3 Bft) 93,62 %
10.08.2019 10:56 22,6 C 23,9 C 23,3 C 68 % 1010,6 hPa 0,0 l/m 0 min 0 min 254 W/m 32,2 km/h (5 Bft) 93,62 %
10.08.2019 10:58 22,6 C 24,4 C 23,9 C 68 % 1010,5 hPa 0,0 l/m 2 min 0 min 904 W/m 16,1 km/h (3 Bft) 95,74 %
10.08.2019 11:00 22,6 C 23,9 C 23,3 C 68 % 1010,4 hPa 0,0 l/m 2 min 0 min 398 W/m 16,1 km/h (3 Bft) 95,74 %
10.08.2019 11:02 22,6 C 23,3 C 22,8 C 67 % 1010,6 hPa 0,0 l/m 0 min 0 min 295 W/m 22,5 km/h (4 Bft) 95,74 %
10.08.2019 11:04 22,6 C 23,3 C 22,8 C 68 % 1010,4 hPa 0,0 l/m 0 min 0 min 266 W/m 22,5 km/h (4 Bft) 93,48 %
10.08.2019 11:06 22,6 C 22,8 C 22,8 C 68 % 1010,8 hPa 0,0 l/m 0 min 0 min 237 W/m 29,0 km/h (5 Bft) 97,87 %
10.08.2019 11:08 22,6 C 22,2 C 21,7 C 68 % 1010,5 hPa 0,0 l/m 0 min 0 min 157 W/m 25,7 km/h (4 Bft) 97,87 %
10.08.2019 11:10 22,6 C 22,2 C 21,7 C 68 % 1010,7 hPa 0,0 l/m 0 min 0 min 164 W/m 32,2 km/h (5 Bft) 97,87 %
10.08.2019 11:12 22,5 C 22,2 C 21,7 C 68 % 1010,6 hPa 0,0 l/m 0 min 0 min 157 W/m 32,2 km/h (5 Bft) 97,87 %
10.08.2019 11:14 22,5 C 23,3 C 23,3 C 67 % 1010,7 hPa 0,0 l/m 0 min 0 min 263 W/m 32,2 km/h (5 Bft) 97,83 %
10.08.2019 11:16 22,5 C 23,3 C 22,8 C 67 % 1010,8 hPa 0,0 l/m 2 min 0 min 912 W/m 25,7 km/h (4 Bft) 97,87 %
10.08.2019 11:18 22,5 C 22,2 C 22,2 C 67 % 1010,5 hPa 0,0 l/m 0 min 0 min 266 W/m 41,8 km/h (6 Bft) 97,87 %
10.08.2019 11:20 22,4 C 22,2 C 21,7 C 67 % 1010,8 hPa 0,0 l/m 0 min 0 min 178 W/m 25,7 km/h (4 Bft) 100,00 %
10.08.2019 11:22 22,4 C 23,3 C 22,8 C 67 % 1010,6 hPa 0,0 l/m 0 min 0 min 264 W/m 48,3 km/h (6 Bft) 97,87 %
10.08.2019 11:24 22,4 C 23,9 C 22,8 C 67 % 1010,8 hPa 0,0 l/m 0 min 0 min 288 W/m 41,8 km/h (6 Bft) 100,00 %
10.08.2019 11:26 22,5 C 23,3 C 22,8 C 67 % 1010,4 hPa 0,0 l/m 0 min 0 min 303 W/m 29,0 km/h (5 Bft) 97,83 %
10.08.2019 11:28 22,5 C 22,8 C 22,2 C 66 % 1010,5 hPa 0,0 l/m 0 min 0 min 176 W/m 32,2 km/h (5 Bft) 100,00 %
10.08.2019 11:30 22,5 C 22,2 C 21,7 C 67 % 1010,6 hPa 0,0 l/m 0 min 0 min 177 W/m 29,0 km/h (5 Bft) 100,00 %
10.08.2019 11:32 22,4 C 22,2 C 21,7 C 66 % 1010,6 hPa 0,0 l/m 0 min 0 min 230 W/m 41,8 km/h (6 Bft) 97,87 %
10.08.2019 11:34 22,4 C 22,8 C 21,7 C 67 % 1010,5 hPa 0,0 l/m 0 min 0 min 251 W/m 22,5 km/h (4 Bft) 97,87 %
10.08.2019 11:36 22,4 C 22,8 C 21,7 C 67 % 1010,4 hPa 0,0 l/m 0 min 0 min 194 W/m 22,5 km/h (4 Bft) 91,49 %
10.08.2019 11:38 22,3 C 22,2 C 21,7 C 67 % 1010,4 hPa 0,0 l/m 0 min 0 min 201 W/m 35,4 km/h (5 Bft) 97,83 %
10.08.2019 11:40 22,3 C 22,2 C 21,7 C 67 % 1010,3 hPa 0,0 l/m 0 min 0 min 198 W/m 25,7 km/h (4 Bft) 97,87 %
10.08.2019 11:42 22,3 C 22,2 C 21,7 C 67 % 1010,3 hPa 0,0 l/m 0 min 0 min 210 W/m 19,3 km/h (3 Bft) 97,87 %
10.08.2019 11:44 22,3 C 23,9 C 22,8 C 67 % 1010,3 hPa 0,0 l/m 0 min 0 min 267 W/m 22,5 km/h (4 Bft) 95,74 %
10.08.2019 11:46 22,4 C 23,9 C 22,8 C 67 % 1010,3 hPa 0,0 l/m 0 min 0 min 228 W/m 29,0 km/h (5 Bft) 95,74 %
10.08.2019 11:48 22,4 C 22,8 C 22,2 C 66 % 1010,7 hPa 0,0 l/m 0 min 0 min 191 W/m 48,3 km/h (6 Bft) 97,87 %
10.08.2019 11:50 22,4 C 23,9 C 22,2 C 66 % 1010,4 hPa 0,0 l/m 0 min 0 min 244 W/m 29,0 km/h (5 Bft) 95,65 %
10.08.2019 11:52 22,5 C 23,3 C 22,8 C 66 % 1010,4 hPa 0,0 l/m 0 min 0 min 264 W/m 32,2 km/h (5 Bft) 95,74 %
10.08.2019 11:54 22,6 C 23,3 C 22,2 C 66 % 1010,3 hPa 0,0 l/m 0 min 0 min 236 W/m 22,5 km/h (4 Bft) 95,74 %
10.08.2019 11:56 22,6 C 22,8 C 22,2 C 66 % 1010,3 hPa 0,0 l/m 0 min 0 min 213 W/m 29,0 km/h (5 Bft) 95,74 %
10.08.2019 11:58 22,6 C 23,3 C 22,8 C 66 % 1010,5 hPa 0,0 l/m 0 min 0 min 286 W/m 29,0 km/h (5 Bft) 97,87 %
10.08.2019 12:00 22,6 C 22,8 C 22,2 C 66 % 1010,3 hPa 0,0 l/m 0 min 0 min 250 W/m 32,2 km/h (5 Bft) 97,87 %
10.08.2019 12:02 22,7 C 23,3 C 22,2 C 66 % 1010,3 hPa 0,0 l/m 0 min 0 min 210 W/m 29,0 km/h (5 Bft) 97,83 %
10.08.2019 12:04 22,7 C 23,9 C 22,8 C 66 % 1010,4 hPa 0,0 l/m 0 min 0 min 291 W/m 19,3 km/h (3 Bft) 97,87 %
10.08.2019 12:08 22,8 C 23,9 C 22,8 C 65 % 1010,7 hPa 0,0 l/m 0 min 0 min 303 W/m 22,5 km/h (4 Bft) 96,81 %
10.08.2019 12:10 22,8 C 23,3 C 22,8 C 65 % 1010,4 hPa 0,0 l/m 0 min 0 min 187 W/m 38,6 km/h (5 Bft) 97,87 %
10.08.2019 12:12 22,8 C 23,3 C 22,8 C 65 % 1010,4 hPa 0,0 l/m 0 min 0 min 219 W/m 19,3 km/h (3 Bft) 93,48 %
10.08.2019 12:14 22,8 C 23,9 C 22,8 C 65 % 1010,3 hPa 0,0 l/m 0 min 0 min 321 W/m 29,0 km/h (5 Bft) 97,87 %
10.08.2019 12:16 22,9 C 23,3 C 22,8 C 64 % 1010,3 hPa 0,0 l/m 0 min 0 min 332 W/m 41,8 km/h (6 Bft) 95,74 %
10.08.2019 12:18 22,9 C 23,3 C 22,8 C 64 % 1010,4 hPa 0,0 l/m 0 min 0 min 337 W/m 25,7 km/h (4 Bft) 97,87 %
10.08.2019 12:20 22,9 C 23,3 C 22,8 C 64 % 1010,4 hPa 0,0 l/m 0 min 0 min 285 W/m 29,0 km/h (5 Bft) 100,00 %
10.08.2019 12:22 22,9 C 22,8 C 22,8 C 63 % 1010,3 hPa 0,0 l/m 0 min 0 min 234 W/m 29,0 km/h (5 Bft) 100,00 %
10.08.2019 12:24 22,9 C 22,8 C 22,2 C 63 % 1010,4 hPa 0,0 l/m 0 min 0 min 171 W/m 32,2 km/h (5 Bft) 100,00 %
10.08.2019 12:26 22,9 C 22,2 C 21,7 C 63 % 1010,5 hPa 0,0 l/m 0 min 0 min 145 W/m 29,0 km/h (5 Bft) 97,87 %
10.08.2019 12:28 22,9 C 22,8 C 22,2 C 63 % 1010,2 hPa 0,0 l/m 0 min 0 min 233 W/m 29,0 km/h (5 Bft) 100,00 %
10.08.2019 12:30 22,8 C 22,8 C 22,2 C 63 % 1010,4 hPa 0,0 l/m 0 min 0 min 263 W/m 29,0 km/h (5 Bft) 100,00 %
10.08.2019 12:32 22,8 C 23,3 C 22,8 C 63 % 1010,4 hPa 0,0 l/m 0 min 0 min 327 W/m 35,4 km/h (5 Bft) 100,00 %
10.08.2019 12:34 22,8 C 23,9 C 22,8 C 64 % 1010,4 hPa 0,0 l/m 0 min 0 min 335 W/m 29,0 km/h (5 Bft) 100,00 %
10.08.2019 12:36 22,9 C 23,9 C 23,3 C 64 % 1010,4 hPa 0,0 l/m 0 min 0 min 357 W/m 29,0 km/h (5 Bft) 100,00 %
10.08.2019 12:38 22,9 C 23,9 C 22,8 C 64 % 1010,5 hPa 0,0 l/m 0 min 0 min 310 W/m 35,4 km/h (5 Bft) 100,00 %
10.08.2019 12:40 22,9 C 23,9 C 22,8 C 63 % 1010,4 hPa 0,0 l/m 0 min 0 min 305 W/m 19,3 km/h (3 Bft) 97,87 %
10.08.2019 12:42 23,0 C 24,4 C 22,8 C 63 % 1010,5 hPa 0,0 l/m 0 min 0 min 378 W/m 25,7 km/h (4 Bft) 100,00 %
10.08.2019 12:44 23,1 C 25,0 C 23,3 C 64 % 1010,4 hPa 0,0 l/m 2 min 0 min 401 W/m 16,1 km/h (3 Bft) 100,00 %
10.08.2019 12:46 23,2 C 25,0 C 23,9 C 63 % 1010,4 hPa 0,0 l/m 0 min 0 min 376 W/m 35,4 km/h (5 Bft) 95,74 %
10.08.2019 12:48 23,2 C 24,4 C 23,9 C 63 % 1010,3 hPa 0,0 l/m 0 min 0 min 352 W/m 22,5 km/h (4 Bft) 100,00 %
10.08.2019 12:50 23,3 C 23,9 C 23,3 C 63 % 1010,5 hPa 0,0 l/m 0 min 0 min 225 W/m 32,2 km/h (5 Bft) 100,00 %
10.08.2019 12:52 23,3 C 23,3 C 22,8 C 63 % 1010,4 hPa 0,0 l/m 0 min 0 min 152 W/m 35,4 km/h (5 Bft) 97,87 %
10.08.2019 12:54 23,3 C 22,8 C 22,2 C 62 % 1010,3 hPa 0,0 l/m 0 min 0 min 106 W/m 35,4 km/h (5 Bft) 100,00 %
10.08.2019 12:56 23,2 C 22,2 C 21,7 C 63 % 1010,4 hPa 0,0 l/m 0 min 0 min 101 W/m 25,7 km/h (4 Bft) 100,00 %
10.08.2019 12:58 23,1 C 22,8 C 22,2 C 63 % 1010,4 hPa 0,0 l/m 0 min 0 min 145 W/m 35,4 km/h (5 Bft) 100,00 %
10.08.2019 13:00 23,0 C 23,3 C 22,2 C 63 % 1010,5 hPa 0,0 l/m 0 min 0 min 277 W/m 45,1 km/h (6 Bft) 100,00 %
10.08.2019 13:02 23,1 C 25,0 C 23,3 C 63 % 1010,4 hPa 0,0 l/m 0 min 0 min 348 W/m 38,6 km/h (5 Bft) 100,00 %
10.08.2019 13:04 23,1 C 25,6 C 23,3 C 63 % 1010,5 hPa 0,0 l/m 0 min 0 min 365 W/m 35,4 km/h (5 Bft) 100,00 %
10.08.2019 13:06 23,2 C 26,1 C 24,4 C 64 % 1010,3 hPa 0,0 l/m 0 min 0 min 385 W/m 41,8 km/h (6 Bft) 100,00 %
10.08.2019 13:08 23,4 C 26,1 C 24,4 C 63 % 1010,3 hPa 0,0 l/m 2 min 0 min 463 W/m 29,0 km/h (5 Bft) 100,00 %
10.08.2019 13:10 23,5 C 25,6 C 24,4 C 63 % 1010,3 hPa 0,0 l/m 2 min 0 min 478 W/m 32,2 km/h (5 Bft) 100,00 %
10.08.2019 13:12 23,6 C 24,4 C 23,9 C 63 % 1010,3 hPa 0,0 l/m 0 min 0 min 235 W/m 19,3 km/h (3 Bft) 97,83 %
10.08.2019 13:14 23,6 C 23,9 C 23,3 C 62 % 1010,2 hPa 0,0 l/m 0 min 0 min 247 W/m 41,8 km/h (6 Bft) 97,87 %
10.08.2019 13:16 23,6 C 24,4 C 23,9 C 62 % 1010,3 hPa 0,0 l/m 0 min 0 min 310 W/m 38,6 km/h (5 Bft) 97,87 %
10.08.2019 13:18 23,7 C 25,0 C 23,9 C 62 % 1010,3 hPa 0,0 l/m 0 min 0 min 338 W/m 35,4 km/h (5 Bft) 100,00 %
10.08.2019 13:20 23,8 C 26,7 C 25,6 C 63 % 1010,3 hPa 0,0 l/m 2 min 0 min 439 W/m 25,7 km/h (4 Bft) 100,00 %
10.08.2019 13:22 23,8 C 26,1 C 25,6 C 63 % 1010,2 hPa 0,0 l/m 2 min 0 min 427 W/m 22,5 km/h (4 Bft) 97,83 %
10.08.2019 13:24 23,9 C 25,0 C 24,4 C 62 % 1010,3 hPa 0,0 l/m 0 min 0 min 233 W/m 32,2 km/h (5 Bft) 97,87 %
10.08.2019 13:26 23,9 C 24,4 C 23,9 C 62 % 1010,3 hPa 0,0 l/m 0 min 0 min 254 W/m 41,8 km/h (6 Bft) 95,74 %
10.08.2019 13:28 23,9 C 23,9 C 23,3 C 61 % 1010,5 hPa 0,0 l/m 0 min 0 min 273 W/m 51,5 km/h (7 Bft) 100,00 %
10.08.2019 13:30 23,9 C 23,9 C 23,3 C 61 % 1010,3 hPa 0,0 l/m 0 min 0 min 253 W/m 32,2 km/h (5 Bft) 100,00 %
10.08.2019 13:32 23,9 C 23,3 C 23,3 C 62 % 1010,4 hPa 0,0 l/m 0 min 0 min 216 W/m 32,2 km/h (5 Bft) 100,00 %
10.08.2019 13:34 23,9 C 23,9 C 23,3 C 62 % 1010,3 hPa 0,0 l/m 0 min 0 min 252 W/m 25,7 km/h (4 Bft) 93,48 %
10.08.2019 13:36 23,8 C 23,9 C 23,9 C 62 % 1010,3 hPa 0,0 l/m 0 min 0 min 276 W/m 29,0 km/h (5 Bft) 95,74 %
10.08.2019 13:38 23,8 C 23,9 C 23,9 C 62 % 1010,4 hPa 0,0 l/m 0 min 0 min 255 W/m 29,0 km/h (5 Bft) 93,62 %
10.08.2019 13:40 23,8 C 25,0 C 24,4 C 62 % 1010,4 hPa 0,0 l/m 0 min 0 min 346 W/m 25,7 km/h (4 Bft) 95,74 %
10.08.2019 13:42 23,8 C 26,1 C 24,4 C 62 % 1010,3 hPa 0,0 l/m 2 min 0 min 541 W/m 45,1 km/h (6 Bft) 93,62 %
10.08.2019 13:44 23,8 C 25,6 C 24,4 C 62 % 1010,3 hPa 0,0 l/m 2 min 0 min 839 W/m 22,5 km/h (4 Bft) 95,74 %
10.08.2019 13:46 23,9 C 27,2 C 26,1 C 63 % 1010,2 hPa 0,0 l/m 0 min 0 min 380 W/m 29,0 km/h (5 Bft) 95,65 %
10.08.2019 13:48 23,9 C 26,1 C 25,6 C 63 % 1010,2 hPa 0,0 l/m 0 min 0 min 339 W/m 32,2 km/h (5 Bft) 95,74 %
10.08.2019 13:50 24,0 C 24,4 C 24,4 C 62 % 1010,3 hPa 0,0 l/m 0 min 0 min 309 W/m 35,4 km/h (5 Bft) 95,74 %
10.08.2019 13:52 24,0 C 24,4 C 23,9 C 62 % 1010,3 hPa 0,0 l/m 0 min 0 min 215 W/m 22,5 km/h (4 Bft) 95,74 %
10.08.2019 13:54 24,0 C 23,9 C 23,3 C 61 % 1010,3 hPa 0,0 l/m 0 min 0 min 227 W/m 35,4 km/h (5 Bft) 95,74 %
10.08.2019 13:56 24,0 C 23,3 C 23,3 C 61 % 1010,3 hPa 0,0 l/m 0 min 0 min 193 W/m 38,6 km/h (5 Bft) 95,74 %
10.08.2019 13:58 23,9 C 23,3 C 22,8 C 60 % 1010,4 hPa 0,0 l/m 0 min 0 min 187 W/m 41,8 km/h (6 Bft) 95,65 %
10.08.2019 14:00 23,8 C 23,3 C 22,8 C 60 % 1010,3 hPa 0,0 l/m 0 min 0 min 262 W/m 35,4 km/h (5 Bft) 95,74 %
10.08.2019 14:02 23,8 C 23,9 C 23,3 C 61 % 1010,3 hPa 0,0 l/m 0 min 0 min 297 W/m 25,7 km/h (4 Bft) 95,74 %
10.08.2019 14:04 23,8 C 25,0 C 24,4 C 61 % 1010,3 hPa 0,0 l/m 0 min 0 min 345 W/m 32,2 km/h (5 Bft) 97,87 %
10.08.2019 14:06 23,8 C 26,1 C 25,0 C 61 % 1010,2 hPa 0,0 l/m 0 min 0 min 345 W/m 25,7 km/h (4 Bft) 93,62 %
10.08.2019 14:08 23,9 C 26,7 C 25,6 C 61 % 1010,2 hPa 0,0 l/m 0 min 0 min 345 W/m 29,0 km/h (5 Bft) 93,62 %
10.08.2019 14:10 24,1 C 26,1 C 25,6 C 61 % 1010,2 hPa 0,0 l/m 0 min 0 min 332 W/m 38,6 km/h (5 Bft) 93,48 %
10.08.2019 14:12 24,1 C 25,0 C 24,4 C 60 % 1010,2 hPa 0,0 l/m 0 min 0 min 234 W/m 25,7 km/h (4 Bft) 93,62 %
10.08.2019 14:14 24,1 C 24,4 C 24,4 C 60 % 1010,2 hPa 0,0 l/m 0 min 0 min 207 W/m 19,3 km/h (3 Bft) 89,36 %
10.08.2019 14:16 24,1 C 23,9 C 23,9 C 60 % 1010,2 hPa 0,0 l/m 0 min 0 min 189 W/m 38,6 km/h (5 Bft) 93,62 %
10.08.2019 14:18 24,1 C 23,9 C 23,3 C 59 % 1010,1 hPa 0,0 l/m 0 min 0 min 179 W/m 32,2 km/h (5 Bft) 91,49 %
10.08.2019 14:20 24,1 C 25,0 C 23,9 C 59 % 1010,2 hPa 0,0 l/m 0 min 0 min 252 W/m 22,5 km/h (4 Bft) 93,62 %
10.08.2019 14:22 24,1 C 26,7 C 26,1 C 60 % 1010,2 hPa 0,0 l/m 0 min 0 min 260 W/m 29,0 km/h (5 Bft) 93,48 %
10.08.2019 14:24 24,2 C 26,1 C 25,0 C 60 % 1010,2 hPa 0,0 l/m 0 min 0 min 291 W/m 25,7 km/h (4 Bft) 93,62 %
10.08.2019 14:26 24,3 C 27,2 C 26,7 C 60 % 1010,1 hPa 0,0 l/m 2 min 0 min 417 W/m 25,7 km/h (4 Bft) 93,62 %
10.08.2019 14:28 24,4 C 30,0 C 27,8 C 60 % 1010,2 hPa 0,0 l/m 2 min 0 min 798 W/m 22,5 km/h (4 Bft) 93,62 %
10.08.2019 14:30 24,6 C 30,0 C 27,8 C 59 % 1010,0 hPa 0,0 l/m 2 min 0 min 1064 W/m 25,7 km/h (4 Bft) 91,49 %
10.08.2019 14:32 24,8 C 28,9 C 26,7 C 57 % 1010,1 hPa 0,0 l/m 2 min 0 min 759 W/m 22,5 km/h (4 Bft) 97,83 %
10.08.2019 14:34 24,9 C 28,3 C 26,7 C 57 % 1010,2 hPa 0,0 l/m 2 min 0 min 394 W/m 29,0 km/h (5 Bft) 97,87 %
10.08.2019 14:36 25,1 C 27,2 C 26,1 C 56 % 1010,1 hPa 0,0 l/m 0 min 0 min 365 W/m 25,7 km/h (4 Bft) 93,62 %
10.08.2019 14:38 25,1 C 26,1 C 25,6 C 55 % 1010,2 hPa 0,0 l/m 0 min 0 min 368 W/m 41,8 km/h (6 Bft) 97,87 %
10.08.2019 14:40 25,1 C 25,6 C 25,0 C 54 % 1010,2 hPa 0,0 l/m 2 min 0 min 406 W/m 41,8 km/h (6 Bft) 95,74 %
10.08.2019 14:42 25,1 C 27,2 C 25,6 C 54 % 1010,2 hPa 0,0 l/m 2 min 0 min 464 W/m 41,8 km/h (6 Bft) 97,87 %
10.08.2019 14:44 25,1 C 26,7 C 25,6 C 54 % 1010,1 hPa 0,0 l/m 2 min 0 min 788 W/m 48,3 km/h (6 Bft) 97,83 %
10.08.2019 14:46 25,1 C 26,1 C 25,0 C 54 % 1010,2 hPa 0,0 l/m 2 min 0 min 557 W/m 57,9 km/h (7 Bft) 97,87 %
10.08.2019 14:48 25,1 C 25,6 C 25,0 C 54 % 1010,3 hPa 0,0 l/m 2 min 0 min 386 W/m 29,0 km/h (5 Bft) 97,87 %
10.08.2019 14:50 25,1 C 25,6 C 24,4 C 54 % 1010,5 hPa 0,0 l/m 2 min 0 min 395 W/m 61,2 km/h (7 Bft) 100,00 %
10.08.2019 14:52 25,1 C 27,8 C 25,6 C 54 % 1010,3 hPa 0,0 l/m 2 min 0 min 689 W/m 22,5 km/h (4 Bft) 100,00 %
10.08.2019 14:54 25,1 C 26,1 C 25,6 C 54 % 1010,3 hPa 0,0 l/m 2 min 0 min 647 W/m 45,1 km/h (6 Bft) 100,00 %
10.08.2019 14:56 25,1 C 25,0 C 24,4 C 54 % 1010,3 hPa 0,0 l/m 0 min 0 min 325 W/m 38,6 km/h (5 Bft) 100,00 %
10.08.2019 14:58 25,1 C 26,7 C 25,0 C 54 % 1010,3 hPa 0,0 l/m 0 min 0 min 376 W/m 45,1 km/h (6 Bft) 97,87 %
10.08.2019 15:00 25,1 C 27,2 C 25,0 C 55 % 1010,3 hPa 0,0 l/m 2 min 0 min 910 W/m 48,3 km/h (6 Bft) 97,87 %
10.08.2019 15:02 25,1 C 27,2 C 25,0 C 55 % 1010,6 hPa 0,0 l/m 2 min 0 min 998 W/m 45,1 km/h (6 Bft) 100,00 %
10.08.2019 15:04 25,1 C 25,6 C 24,4 C 55 % 1010,6 hPa 0,0 l/m 2 min 0 min 530 W/m 38,6 km/h (5 Bft) 100,00 %
10.08.2019 15:06 25,1 C 25,0 C 24,4 C 55 % 1010,5 hPa 0,0 l/m 0 min 0 min 265 W/m 41,8 km/h (6 Bft) 100,00 %
10.08.2019 15:08 24,9 C 24,4 C 24,4 C 55 % 1010,4 hPa 0,0 l/m 0 min 0 min 208 W/m 25,7 km/h (4 Bft) 100,00 %
10.08.2019 15:10 24,9 C 24,4 C 23,9 C 55 % 1010,4 hPa 0,0 l/m 0 min 0 min 197 W/m 22,5 km/h (4 Bft) 100,00 %
10.08.2019 15:12 24,8 C 24,4 C 23,9 C 55 % 1010,3 hPa 0,0 l/m 0 min 0 min 221 W/m 32,2 km/h (5 Bft) 100,00 %
10.08.2019 15:14 24,8 C 25,0 C 24,4 C 56 % 1010,4 hPa 0,0 l/m 0 min 0 min 225 W/m 22,5 km/h (4 Bft) 100,00 %
10.08.2019 15:16 24,7 C 24,4 C 24,4 C 55 % 1010,4 hPa 0,0 l/m 0 min 0 min 226 W/m 25,7 km/h (4 Bft) 100,00 %
10.08.2019 15:18 24,7 C 25,0 C 24,4 C 55 % 1010,3 hPa 0,0 l/m 0 min 0 min 242 W/m 25,7 km/h (4 Bft) 97,87 %
10.08.2019 15:20 24,7 C 24,4 C 23,9 C 56 % 1010,4 hPa 0,0 l/m 0 min 0 min 262 W/m 38,6 km/h (5 Bft) 100,00 %
10.08.2019 15:22 24,6 C 25,0 C 23,9 C 56 % 1010,4 hPa 0,0 l/m 0 min 0 min 233 W/m 25,7 km/h (4 Bft) 100,00 %
10.08.2019 15:24 24,6 C 26,7 C 24,4 C 56 % 1010,4 hPa 0,0 l/m 2 min 0 min 568 W/m 35,4 km/h (5 Bft) 100,00 %
10.08.2019 15:26 24,7 C 25,6 C 24,4 C 56 % 1010,4 hPa 0,0 l/m 2 min 0 min 422 W/m 22,5 km/h (4 Bft) 97,87 %
10.08.2019 15:28 24,7 C 25,6 C 24,4 C 55 % 1010,4 hPa 0,0 l/m 0 min 0 min 265 W/m 41,8 km/h (6 Bft) 100,00 %
10.08.2019 15:30 24,7 C 25,6 C 24,4 C 55 % 1010,6 hPa 0,0 l/m 0 min 0 min 258 W/m 25,7 km/h (4 Bft) 100,00 %
10.08.2019 15:32 24,8 C 26,1 C 24,4 C 55 % 1010,5 hPa 0,0 l/m 2 min 0 min 405 W/m 32,2 km/h (5 Bft) 100,00 %
10.08.2019 15:34 24,8 C 25,6 C 25,0 C 55 % 1010,5 hPa 0,0 l/m 2 min 0 min 365 W/m 19,3 km/h (3 Bft) 100,00 %
10.08.2019 15:36 24,8 C 25,0 C 24,4 C 56 % 1010,4 hPa 0,0 l/m 0 min 0 min 175 W/m 22,5 km/h (4 Bft) 100,00 %
10.08.2019 15:38 24,8 C 24,4 C 24,4 C 55 % 1010,7 hPa 0,0 l/m 0 min 0 min 143 W/m 38,6 km/h (5 Bft) 100,00 %
10.08.2019 15:40 24,8 C 23,9 C 23,9 C 54 % 1010,7 hPa 0,0 l/m 0 min 0 min 168 W/m 32,2 km/h (5 Bft) 97,87 %
10.08.2019 15:42 24,7 C 26,1 C 24,4 C 55 % 1010,5 hPa 0,0 l/m 0 min 0 min 246 W/m 25,7 km/h (4 Bft) 97,83 %
10.08.2019 15:44 24,7 C 27,8 C 25,0 C 55 % 1010,5 hPa 0,0 l/m 2 min 0 min 965 W/m 48,3 km/h (6 Bft) 100,00 %
10.08.2019 15:46 24,9 C 29,4 C 25,6 C 55 % 1010,4 hPa 0,0 l/m 2 min 0 min 907 W/m 25,7 km/h (4 Bft) 97,87 %
10.08.2019 15:48 25,1 C 27,2 C 25,0 C 54 % 1010,5 hPa 0,0 l/m 2 min 0 min 615 W/m 38,6 km/h (5 Bft) 100,00 %
10.08.2019 15:50 25,1 C 27,2 C 25,0 C 53 % 1010,6 hPa 0,0 l/m 2 min 0 min 505 W/m 45,1 km/h (6 Bft) 97,87 %
10.08.2019 15:52 25,2 C 27,2 C 25,0 C 53 % 1010,5 hPa 0,0 l/m 2 min 0 min 853 W/m 48,3 km/h (6 Bft) 95,74 %
10.08.2019 15:54 25,3 C 28,3 C 25,6 C 53 % 1010,5 hPa 0,0 l/m 2 min 0 min 911 W/m 35,4 km/h (5 Bft) 100,00 %
10.08.2019 15:56 25,4 C 27,8 C 25,6 C 52 % 1010,4 hPa 0,0 l/m 2 min 0 min 911 W/m 41,8 km/h (6 Bft) 97,87 %
10.08.2019 15:58 25,5 C 28,9 C 25,6 C 52 % 1010,6 hPa 0,0 l/m 2 min 0 min 853 W/m 41,8 km/h (6 Bft) 100,00 %
10.08.2019 16:00 25,6 C 28,9 C 25,6 C 52 % 1010,7 hPa 0,0 l/m 2 min 0 min 848 W/m 32,2 km/h (5 Bft) 100,00 %
10.08.2019 16:02 25,7 C 26,1 C 25,6 C 50 % 1010,6 hPa 0,0 l/m 2 min 0 min 456 W/m 35,4 km/h (5 Bft) 100,00 %
10.08.2019 16:04 25,6 C 26,1 C 25,0 C 51 % 1010,6 hPa 0,0 l/m 0 min 0 min 213 W/m 25,7 km/h (4 Bft) 100,00 %
10.08.2019 16:06 25,6 C 26,1 C 25,0 C 51 % 1010,7 hPa 0,0 l/m 0 min 0 min 216 W/m 19,3 km/h (3 Bft) 100,00 %
10.08.2019 16:08 25,6 C 26,7 C 25,0 C 51 % 1010,7 hPa 0,0 l/m 0 min 0 min 287 W/m 48,3 km/h (6 Bft) 100,00 %
10.08.2019 16:10 25,5 C 27,2 C 25,6 C 52 % 1010,6 hPa 0,0 l/m 0 min 0 min 287 W/m 29,0 km/h (5 Bft) 100,00 %
10.08.2019 16:12 25,6 C 26,1 C 25,0 C 52 % 1010,7 hPa 0,0 l/m 2 min 0 min 441 W/m 41,8 km/h (6 Bft) 100,00 %
10.08.2019 16:14 25,5 C 26,1 C 25,0 C 51 % 1010,6 hPa 0,0 l/m 0 min 0 min 221 W/m 38,6 km/h (5 Bft) 100,00 %
10.08.2019 16:16 25,5 C 27,8 C 25,6 C 52 % 1010,7 hPa 0,0 l/m 2 min 0 min 758 W/m 41,8 km/h (6 Bft) 97,87 %
10.08.2019 16:18 25,5 C 27,2 C 25,6 C 52 % 1010,6 hPa 0,0 l/m 2 min 0 min 826 W/m 41,8 km/h (6 Bft) 100,00 %
10.08.2019 16:20 25,5 C 26,7 C 25,0 C 51 % 1010,6 hPa 0,0 l/m 2 min 0 min 439 W/m 22,5 km/h (4 Bft) 100,00 %
10.08.2019 16:22 25,5 C 26,1 C 25,0 C 51 % 1010,6 hPa 0,0 l/m 0 min 0 min 229 W/m 19,3 km/h (3 Bft) 97,87 %
10.08.2019 16:24 25,5 C 26,1 C 25,0 C 51 % 1010,8 hPa 0,0 l/m 0 min 0 min 244 W/m 38,6 km/h (5 Bft) 100,00 %
10.08.2019 16:26 25,5 C 25,6 C 24,4 C 51 % 1010,7 hPa 0,0 l/m 0 min 0 min 223 W/m 29,0 km/h (5 Bft) 97,87 %
10.08.2019 16:28 25,4 C 25,0 C 24,4 C 51 % 1010,8 hPa 0,0 l/m 0 min 0 min 227 W/m 45,1 km/h (6 Bft) 100,00 %
10.08.2019 16:30 25,3 C 26,1 C 25,0 C 52 % 1010,7 hPa 0,0 l/m 0 min 0 min 243 W/m 25,7 km/h (4 Bft) 95,65 %
10.08.2019 16:32 25,3 C 27,2 C 25,6 C 51 % 1010,8 hPa 0,0 l/m 0 min 0 min 243 W/m 41,8 km/h (6 Bft) 100,00 %
10.08.2019 16:34 25,4 C 27,8 C 26,1 C 52 % 1010,8 hPa 0,0 l/m 0 min 0 min 243 W/m 29,0 km/h (5 Bft) 100,00 %
10.08.2019 16:36 25,4 C 28,3 C 26,1 C 52 % 1010,7 hPa 0,0 l/m 0 min 0 min 231 W/m 32,2 km/h (5 Bft) 97,87 %
10.08.2019 16:38 25,6 C 26,1 C 25,6 C 52 % 1010,9 hPa 0,0 l/m 0 min 0 min 226 W/m 45,1 km/h (6 Bft) 95,74 %
10.08.2019 16:40 25,6 C 26,1 C 25,6 C 51 % 1010,8 hPa 0,0 l/m 0 min 0 min 202 W/m 35,4 km/h (5 Bft) 97,83 %
10.08.2019 16:42 25,5 C 25,0 C 25,0 C 51 % 1010,7 hPa 0,0 l/m 0 min 0 min 187 W/m 29,0 km/h (5 Bft) 97,87 %
10.08.2019 16:44 25,5 C 25,0 C 24,4 C 51 % 1010,7 hPa 0,0 l/m 0 min 0 min 161 W/m 22,5 km/h (4 Bft) 97,87 %
10.08.2019 16:46 25,4 C 25,0 C 24,4 C 51 % 1010,8 hPa 0,0 l/m 0 min 0 min 160 W/m 16,1 km/h (3 Bft) 93,62 %
10.08.2019 16:48 25,4 C 25,6 C 24,4 C 51 % 1010,8 hPa 0,0 l/m 0 min 0 min 204 W/m 19,3 km/h (3 Bft) 93,62 %
10.08.2019 16:50 25,4 C 27,2 C 25,0 C 51 % 1010,8 hPa 0,0 l/m 0 min 0 min 232 W/m 32,2 km/h (5 Bft) 91,49 %
10.08.2019 16:52 25,4 C 28,9 C 25,6 C 52 % 1010,8 hPa 0,0 l/m 2 min 0 min 677 W/m 19,3 km/h (3 Bft) 95,74 %
10.08.2019 16:54 25,5 C 27,8 C 25,6 C 52 % 1010,8 hPa 0,0 l/m 2 min 0 min 655 W/m 29,0 km/h (5 Bft) 91,30 %
10.08.2019 16:56 25,6 C 26,1 C 25,0 C 51 % 1010,9 hPa 0,0 l/m 0 min 0 min 189 W/m 32,2 km/h (5 Bft) 93,62 %
10.08.2019 16:58 25,5 C 26,1 C 24,4 C 51 % 1010,8 hPa 0,0 l/m 0 min 0 min 216 W/m 32,2 km/h (5 Bft) 91,49 %
10.08.2019 17:00 25,5 C 25,6 C 24,4 C 51 % 1010,7 hPa 0,0 l/m 0 min 0 min 194 W/m 25,7 km/h (4 Bft) 93,62 %
10.08.2019 17:02 25,4 C 25,0 C 24,4 C 51 % 1010,8 hPa 0,0 l/m 0 min 0 min 163 W/m 25,7 km/h (4 Bft) 91,49 %
10.08.2019 17:04 25,4 C 25,0 C 24,4 C 51 % 1010,7 hPa 0,0 l/m 0 min 0 min 151 W/m 32,2 km/h (5 Bft) 93,48 %
10.08.2019 17:06 25,3 C 25,0 C 24,4 C 51 % 1010,9 hPa 0,0 l/m 0 min 0 min 154 W/m 29,0 km/h (5 Bft) 89,36 %
10.08.2019 17:08 25,3 C 25,0 C 24,4 C 51 % 1010,9 hPa 0,0 l/m 0 min 0 min 172 W/m 25,7 km/h (4 Bft) 93,62 %
10.08.2019 17:10 25,2 C 25,0 C 24,4 C 51 % 1010,9 hPa 0,0 l/m 0 min 0 min 198 W/m 19,3 km/h (3 Bft) 93,62 %
10.08.2019 17:12 25,1 C 25,6 C 24,4 C 51 % 1010,8 hPa 0,0 l/m 0 min 0 min 188 W/m 19,3 km/h (3 Bft) 93,62 %
10.08.2019 17:14 25,2 C 27,8 C 25,0 C 52 % 1010,9 hPa 0,0 l/m 2 min 0 min 357 W/m 16,1 km/h (3 Bft) 93,62 %
10.08.2019 17:16 25,2 C 26,7 C 25,0 C 52 % 1011,0 hPa 0,0 l/m 2 min 0 min 674 W/m 19,3 km/h (3 Bft) 95,65 %
10.08.2019 17:18 25,2 C 25,6 C 24,4 C 52 % 1010,8 hPa 0,0 l/m 2 min 0 min 355 W/m 22,5 km/h (4 Bft) 93,62 %
10.08.2019 17:20 25,2 C 25,0 C 24,4 C 51 % 1011,0 hPa 0,0 l/m 0 min 0 min 132 W/m 29,0 km/h (5 Bft) 95,74 %
10.08.2019 17:22 25,2 C 24,4 C 24,4 C 51 % 1011,1 hPa 0,0 l/m 0 min 0 min 150 W/m 38,6 km/h (5 Bft) 93,62 %
10.08.2019 17:24 25,2 C 25,0 C 24,4 C 51 % 1010,9 hPa 0,0 l/m 0 min 0 min 170 W/m 38,6 km/h (5 Bft) 95,74 %
10.08.2019 17:26 25,1 C 25,0 C 24,4 C 51 % 1010,9 hPa 0,0 l/m 0 min 0 min 233 W/m 25,7 km/h (4 Bft) 95,74 %
10.08.2019 17:28 25,1 C 26,7 C 24,4 C 51 % 1010,9 hPa 0,0 l/m 2 min 0 min 396 W/m 22,5 km/h (4 Bft) 95,65 %
10.08.2019 17:30 25,2 C 26,7 C 25,0 C 51 % 1010,9 hPa 0,0 l/m 2 min 0 min 561 W/m 25,7 km/h (4 Bft) 87,23 %
10.08.2019 17:32 25,2 C 26,1 C 24,4 C 51 % 1011,0 hPa 0,0 l/m 2 min 0 min 431 W/m 32,2 km/h (5 Bft) 95,74 %
10.08.2019 17:34 25,2 C 27,2 C 25,0 C 51 % 1010,9 hPa 0,0 l/m 2 min 0 min 369 W/m 32,2 km/h (5 Bft) 95,74 %
10.08.2019 17:36 25,3 C 27,2 C 25,0 C 51 % 1010,9 hPa 0,0 l/m 2 min 0 min 552 W/m 29,0 km/h (5 Bft) 93,62 %
10.08.2019 17:38 25,4 C 27,8 C 25,0 C 52 % 1010,8 hPa 0,0 l/m 2 min 0 min 572 W/m 22,5 km/h (4 Bft) 95,74 %
10.08.2019 17:40 25,4 C 26,7 C 25,0 C 51 % 1011,0 hPa 0,0 l/m 2 min 0 min 548 W/m 16,1 km/h (3 Bft) 95,65 %
10.08.2019 17:42 25,4 C 25,6 C 24,4 C 51 % 1011,0 hPa 0,0 l/m 0 min 0 min 117 W/m 25,7 km/h (4 Bft) 97,87 %
10.08.2019 17:44 25,4 C 25,6 C 24,4 C 50 % 1010,9 hPa 0,0 l/m 0 min 0 min 211 W/m 32,2 km/h (5 Bft) 97,87 %
10.08.2019 17:46 25,4 C 25,6 C 24,4 C 50 % 1011,0 hPa 0,0 l/m 2 min 0 min 269 W/m 19,3 km/h (3 Bft) 91,49 %
10.08.2019 17:48 25,4 C 25,0 C 24,4 C 51 % 1011,0 hPa 0,0 l/m 0 min 0 min 169 W/m 22,5 km/h (4 Bft) 93,62 %
10.08.2019 17:50 25,3 C 25,6 C 24,4 C 50 % 1011,1 hPa 0,0 l/m 0 min 0 min 158 W/m 19,3 km/h (3 Bft) 100,00 %
10.08.2019 17:52 25,3 C 26,1 C 24,4 C 51 % 1011,0 hPa 0,0 l/m 0 min 0 min 159 W/m 29,0 km/h (5 Bft) 100,00 %
10.08.2019 17:54 25,3 C 25,6 C 24,4 C 50 % 1011,0 hPa 0,0 l/m 0 min 0 min 173 W/m 29,0 km/h (5 Bft) 100,00 %
10.08.2019 17:56 25,3 C 25,0 C 24,4 C 50 % 1011,0 hPa 0,0 l/m 0 min 0 min 134 W/m 19,3 km/h (3 Bft) 97,87 %
10.08.2019 17:58 25,3 C 25,0 C 23,9 C 50 % 1011,0 hPa 0,0 l/m 0 min 0 min 137 W/m 25,7 km/h (4 Bft) 95,74 %
10.08.2019 18:00 25,2 C 25,0 C 23,9 C 50 % 1011,0 hPa 0,0 l/m 0 min 0 min 149 W/m 22,5 km/h (4 Bft) 100,00 %
10.08.2019 18:02 25,2 C 26,1 C 24,4 C 50 % 1011,0 hPa 0,0 l/m 2 min 0 min 290 W/m 25,7 km/h (4 Bft) 100,00 %
10.08.2019 18:04 25,2 C 27,2 C 24,4 C 50 % 1011,1 hPa 0,0 l/m 2 min 0 min 531 W/m 22,5 km/h (4 Bft) 100,00 %
10.08.2019 18:08 25,4 C 28,3 C 25,0 C 49 % 1011,0 hPa 0,0 l/m 4 min 0 min 470 W/m 22,5 km/h (4 Bft) 100,00 %
10.08.2019 18:10 25,4 C 27,8 C 25,0 C 49 % 1011,0 hPa 0,0 l/m 2 min 0 min 364 W/m 22,5 km/h (4 Bft) 100,00 %
10.08.2019 18:12 25,5 C 27,2 C 25,0 C 50 % 1010,9 hPa 0,0 l/m 2 min 0 min 426 W/m 22,5 km/h (4 Bft) 100,00 %
10.08.2019 18:14 25,6 C 26,7 C 24,4 C 49 % 1011,2 hPa 0,0 l/m 2 min 0 min 391 W/m 25,7 km/h (4 Bft) 100,00 %
10.08.2019 18:16 25,6 C 25,0 C 24,4 C 49 % 1011,1 hPa 0,0 l/m 0 min 0 min 100 W/m 32,2 km/h (5 Bft) 100,00 %
10.08.2019 18:18 25,6 C 25,0 C 24,4 C 50 % 1011,1 hPa 0,0 l/m 0 min 0 min 120 W/m 22,5 km/h (4 Bft) 100,00 %
10.08.2019 18:20 25,4 C 24,4 C 23,9 C 49 % 1011,3 hPa 0,0 l/m 0 min 0 min 135 W/m 38,6 km/h (5 Bft) 100,00 %
10.08.2019 18:22 25,4 C 26,1 C 24,4 C 50 % 1011,2 hPa 0,0 l/m 0 min 0 min 186 W/m 32,2 km/h (5 Bft) 100,00 %
10.08.2019 18:24 25,4 C 26,1 C 24,4 C 50 % 1011,3 hPa 0,0 l/m 2 min 0 min 446 W/m 51,5 km/h (7 Bft) 100,00 %
10.08.2019 18:26 25,4 C 27,2 C 24,4 C 50 % 1011,2 hPa 0,0 l/m 2 min 0 min 432 W/m 12,9 km/h (3 Bft) 100,00 %
10.08.2019 18:28 25,4 C 27,2 C 24,4 C 50 % 1011,1 hPa 0,0 l/m 2 min 0 min 396 W/m 25,7 km/h (4 Bft) 100,00 %
10.08.2019 18:30 25,4 C 26,1 C 24,4 C 50 % 1011,3 hPa 0,0 l/m 2 min 0 min 320 W/m 38,6 km/h (5 Bft) 100,00 %
10.08.2019 18:32 25,4 C 25,0 C 23,9 C 50 % 1011,2 hPa 0,0 l/m 0 min 0 min 139 W/m 32,2 km/h (5 Bft) 97,87 %
10.08.2019 18:34 25,4 C 24,4 C 23,9 C 50 % 1011,2 hPa 0,0 l/m 0 min 0 min 84 W/m 22,5 km/h (4 Bft) 100,00 %
10.08.2019 18:36 25,3 C 24,4 C 23,9 C 50 % 1011,2 hPa 0,0 l/m 0 min 0 min 98 W/m 22,5 km/h (4 Bft) 100,00 %
10.08.2019 18:38 25,2 C 24,4 C 23,9 C 50 % 1011,2 hPa 0,0 l/m 0 min 0 min 90 W/m 25,7 km/h (4 Bft) 100,00 %
10.08.2019 18:40 25,2 C 23,9 C 23,3 C 50 % 1011,1 hPa 0,0 l/m 0 min 0 min 66 W/m 22,5 km/h (4 Bft) 100,00 %
10.08.2019 18:42 25,1 C 23,9 C 23,3 C 50 % 1011,2 hPa 0,0 l/m 0 min 0 min 55 W/m 22,5 km/h (4 Bft) 97,87 %
10.08.2019 18:44 25,1 C 23,9 C 23,3 C 51 % 1011,1 hPa 0,0 l/m 0 min 0 min 66 W/m 16,1 km/h (3 Bft) 100,00 %
10.08.2019 18:46 25,0 C 25,0 C 23,9 C 51 % 1011,3 hPa 0,0 l/m 0 min 0 min 138 W/m 22,5 km/h (4 Bft) 100,00 %
10.08.2019 18:48 25,0 C 26,1 C 23,9 C 50 % 1011,3 hPa 0,0 l/m 2 min 0 min 366 W/m 22,5 km/h (4 Bft) 100,00 %
10.08.2019 18:50 25,0 C 26,7 C 24,4 C 51 % 1011,3 hPa 0,0 l/m 2 min 0 min 368 W/m 41,8 km/h (6 Bft) 100,00 %
10.08.2019 18:52 25,1 C 26,1 C 23,9 C 50 % 1011,2 hPa 0,0 l/m 2 min 0 min 331 W/m 41,8 km/h (6 Bft) 100,00 %
10.08.2019 18:54 25,1 C 25,0 C 23,9 C 50 % 1011,3 hPa 0,0 l/m 0 min 0 min 133 W/m 32,2 km/h (5 Bft) 100,00 %
10.08.2019 18:56 25,1 C 24,4 C 23,9 C 50 % 1011,3 hPa 0,0 l/m 0 min 0 min 69 W/m 25,7 km/h (4 Bft) 97,87 %
10.08.2019 18:58 25,0 C 23,9 C 23,3 C 50 % 1011,5 hPa 0,0 l/m 0 min 0 min 89 W/m 29,0 km/h (5 Bft) 100,00 %
10.08.2019 19:00 25,0 C 25,0 C 23,9 C 51 % 1011,3 hPa 0,0 l/m 2 min 0 min 158 W/m 29,0 km/h (5 Bft) 100,00 %
10.08.2019 19:02 24,9 C 24,4 C 23,9 C 50 % 1011,4 hPa 0,0 l/m 2 min 0 min 185 W/m 41,8 km/h (6 Bft) 93,62 %
10.08.2019 19:04 24,9 C 24,4 C 23,9 C 51 % 1011,4 hPa 0,0 l/m 2 min 0 min 237 W/m 32,2 km/h (5 Bft) 100,00 %
10.08.2019 19:06 24,9 C 24,4 C 23,9 C 50 % 1011,2 hPa 0,0 l/m 2 min 0 min 250 W/m 25,7 km/h (4 Bft) 100,00 %
10.08.2019 19:08 24,9 C 24,4 C 23,9 C 50 % 1011,3 hPa 0,0 l/m 2 min 0 min 160 W/m 22,5 km/h (4 Bft) 100,00 %
10.08.2019 19:10 24,9 C 24,4 C 23,9 C 50 % 1011,4 hPa 0,0 l/m 0 min 0 min 118 W/m 25,7 km/h (4 Bft) 95,74 %
10.08.2019 19:12 24,9 C 24,4 C 23,9 C 51 % 1011,3 hPa 0,0 l/m 0 min 0 min 87 W/m 35,4 km/h (5 Bft) 97,83 %
10.08.2019 19:14 24,9 C 24,4 C 23,9 C 51 % 1011,4 hPa 0,0 l/m 0 min 0 min 88 W/m 38,6 km/h (5 Bft) 97,87 %
10.08.2019 19:16 24,9 C 24,4 C 23,9 C 51 % 1011,3 hPa 0,0 l/m 0 min 0 min 91 W/m 19,3 km/h (3 Bft) 97,87 %
10.08.2019 19:18 24,9 C 23,9 C 23,9 C 51 % 1011,5 hPa 0,0 l/m 0 min 0 min 86 W/m 32,2 km/h (5 Bft) 97,87 %
10.08.2019 19:20 24,9 C 23,9 C 23,3 C 51 % 1011,4 hPa 0,0 l/m 0 min 0 min 86 W/m 22,5 km/h (4 Bft) 97,87 %
10.08.2019 19:22 24,8 C 23,9 C 23,3 C 51 % 1011,3 hPa 0,0 l/m 0 min 0 min 84 W/m 29,0 km/h (5 Bft) 97,87 %
10.08.2019 19:24 24,8 C 23,9 C 23,3 C 51 % 1011,4 hPa 0,0 l/m 0 min 0 min 95 W/m 19,3 km/h (3 Bft) 97,83 %
10.08.2019 19:26 24,8 C 23,9 C 23,3 C 51 % 1011,4 hPa 0,0 l/m 0 min 0 min 80 W/m 32,2 km/h (5 Bft) 97,87 %
10.08.2019 19:28 24,8 C 23,9 C 23,3 C 51 % 1011,6 hPa 0,0 l/m 0 min 0 min 74 W/m 35,4 km/h (5 Bft) 95,74 %
10.08.2019 19:30 24,7 C 23,9 C 23,3 C 51 % 1011,5 hPa 0,0 l/m 0 min 0 min 78 W/m 32,2 km/h (5 Bft) 95,74 %
10.08.2019 19:32 24,7 C 23,9 C 23,3 C 51 % 1011,5 hPa 0,0 l/m 0 min 0 min 86 W/m 16,1 km/h (3 Bft) 97,87 %
10.08.2019 19:34 24,7 C 23,9 C 23,3 C 51 % 1011,6 hPa 0,0 l/m 0 min 0 min 99 W/m 29,0 km/h (5 Bft) 97,87 %
10.08.2019 19:36 24,7 C 23,9 C 23,3 C 52 % 1011,5 hPa 0,0 l/m 0 min 0 min 88 W/m 32,2 km/h (5 Bft) 97,83 %
10.08.2019 19:38 24,7 C 23,9 C 23,3 C 52 % 1011,5 hPa 0,0 l/m 0 min 0 min 81 W/m 25,7 km/h (4 Bft) 97,87 %
10.08.2019 19:40 24,7 C 23,9 C 23,3 C 52 % 1011,6 hPa 0,0 l/m 0 min 0 min 86 W/m 32,2 km/h (5 Bft) 97,87 %
10.08.2019 19:42 24,6 C 23,9 C 23,3 C 52 % 1011,8 hPa 0,0 l/m 0 min 0 min 70 W/m 22,5 km/h (4 Bft) 97,87 %
10.08.2019 19:44 24,6 C 23,9 C 23,3 C 52 % 1011,7 hPa 0,0 l/m 0 min 0 min 62 W/m 19,3 km/h (3 Bft) 95,74 %
10.08.2019 19:46 24,6 C 23,3 C 23,3 C 52 % 1011,8 hPa 0,0 l/m 0 min 0 min 54 W/m 35,4 km/h (5 Bft) 95,65 %
10.08.2019 19:48 24,6 C 23,3 C 23,3 C 52 % 1011,7 hPa 0,0 l/m 0 min 0 min 49 W/m 22,5 km/h (4 Bft) 97,87 %
10.08.2019 19:50 24,5 C 23,3 C 23,3 C 52 % 1011,8 hPa 0,0 l/m 0 min 0 min 52 W/m 32,2 km/h (5 Bft) 97,87 %
10.08.2019 19:52 24,5 C 23,3 C 23,3 C 53 % 1011,7 hPa 0,0 l/m 0 min 0 min 53 W/m 16,1 km/h (3 Bft) 97,87 %
10.08.2019 19:54 24,4 C 23,3 C 23,3 C 53 % 1011,8 hPa 0,0 l/m 0 min 0 min 51 W/m 25,7 km/h (4 Bft) 95,74 %
10.08.2019 19:56 24,4 C 23,3 C 23,3 C 53 % 1011,9 hPa 0,0 l/m 0 min 0 min 54 W/m 25,7 km/h (4 Bft) 100,00 %
10.08.2019 19:58 24,4 C 23,3 C 23,3 C 53 % 1011,8 hPa 0,0 l/m 0 min 0 min 59 W/m 19,3 km/h (3 Bft) 97,83 %
10.08.2019 20:00 24,4 C 23,3 C 23,3 C 53 % 1011,8 hPa 0,0 l/m 0 min 0 min 64 W/m 16,1 km/h (3 Bft) 95,74 %
10.08.2019 20:02 24,3 C 23,3 C 22,8 C 53 % 1011,8 hPa 0,0 l/m 0 min 0 min 49 W/m 19,3 km/h (3 Bft) 93,62 %
10.08.2019 20:04 24,3 C 23,3 C 22,8 C 53 % 1011,9 hPa 0,0 l/m 0 min 0 min 43 W/m 16,1 km/h (3 Bft) 95,74 %
10.08.2019 20:06 24,3 C 23,3 C 22,8 C 53 % 1011,9 hPa 0,0 l/m 0 min 0 min 44 W/m 32,2 km/h (5 Bft) 97,87 %
10.08.2019 20:08 24,3 C 23,3 C 22,8 C 53 % 1011,9 hPa 0,0 l/m 0 min 0 min 46 W/m 22,5 km/h (4 Bft) 95,74 %
10.08.2019 20:10 24,3 C 23,3 C 22,8 C 53 % 1011,9 hPa 0,0 l/m 0 min 0 min 44 W/m 19,3 km/h (3 Bft) 95,65 %
10.08.2019 20:12 24,2 C 23,3 C 22,8 C 53 % 1011,8 hPa 0,0 l/m 0 min 0 min 42 W/m 16,1 km/h (3 Bft) 95,74 %
10.08.2019 20:14 24,2 C 23,3 C 22,8 C 53 % 1011,9 hPa 0,0 l/m 0 min 0 min 39 W/m 19,3 km/h (3 Bft) 95,74 %
10.08.2019 20:16 24,2 C 23,3 C 22,8 C 53 % 1011,9 hPa 0,0 l/m 0 min 0 min 39 W/m 16,1 km/h (3 Bft) 95,74 %
10.08.2019 20:18 24,2 C 23,3 C 22,8 C 53 % 1011,9 hPa 0,0 l/m 0 min 0 min 26 W/m 16,1 km/h (3 Bft) 95,74 %
10.08.2019 20:20 24,1 C 23,3 C 22,8 C 53 % 1012,0 hPa 0,0 l/m 0 min 0 min 30 W/m 19,3 km/h (3 Bft) 93,62 %
10.08.2019 20:22 24,1 C 23,3 C 22,8 C 53 % 1012,0 hPa 0,0 l/m 0 min 0 min 38 W/m 16,1 km/h (3 Bft) 95,65 %
10.08.2019 20:24 24,1 C 22,8 C 22,8 C 53 % 1012,0 hPa 0,0 l/m 0 min 0 min 33 W/m 29,0 km/h (5 Bft) 95,74 %
10.08.2019 20:26 24,1 C 22,8 C 22,8 C 53 % 1012,0 hPa 0,0 l/m 0 min 0 min 31 W/m 16,1 km/h (3 Bft) 95,74 %
10.08.2019 20:28 24,1 C 22,8 C 22,8 C 53 % 1012,0 hPa 0,0 l/m 0 min 0 min 28 W/m 19,3 km/h (3 Bft) 95,74 %
10.08.2019 20:30 24,0 C 22,8 C 22,8 C 53 % 1012,0 hPa 0,0 l/m 0 min 0 min 24 W/m 22,5 km/h (4 Bft) 95,74 %
10.08.2019 20:32 24,0 C 22,8 C 22,8 C 53 % 1012,0 hPa 0,0 l/m 0 min 0 min 22 W/m 19,3 km/h (3 Bft) 93,62 %
10.08.2019 20:34 23,9 C 22,8 C 22,8 C 53 % 1012,1 hPa 0,0 l/m 0 min 0 min 20 W/m 16,1 km/h (3 Bft) 95,65 %
10.08.2019 20:36 23,9 C 22,8 C 22,8 C 54 % 1012,0 hPa 0,0 l/m 0 min 0 min 19 W/m 19,3 km/h (3 Bft) 96,08 %
10.08.2019 20:38 23,9 C 22,8 C 22,2 C 54 % 1012,1 hPa 0,0 l/m 0 min 0 min 19 W/m 12,9 km/h (3 Bft) 95,74 %
10.08.2019 20:40 23,9 C 22,8 C 22,2 C 54 % 1012,1 hPa 0,0 l/m 0 min 0 min 18 W/m 12,9 km/h (3 Bft) 95,74 %
10.08.2019 20:42 23,9 C 22,8 C 22,2 C 54 % 1012,1 hPa 0,0 l/m 0 min 0 min 17 W/m 12,9 km/h (3 Bft) 95,74 %
10.08.2019 20:44 23,8 C 22,8 C 22,2 C 54 % 1012,1 hPa 0,0 l/m 0 min 0 min 15 W/m 25,7 km/h (4 Bft) 95,74 %
10.08.2019 20:46 23,8 C 22,8 C 22,2 C 54 % 1012,3 hPa 0,0 l/m 0 min 0 min 14 W/m 25,7 km/h (4 Bft) 95,65 %
10.08.2019 20:48 23,8 C 22,8 C 22,2 C 54 % 1012,3 hPa 0,0 l/m 0 min 0 min 12 W/m 25,7 km/h (4 Bft) 93,62 %
10.08.2019 20:50 23,7 C 22,8 C 22,2 C 54 % 1012,3 hPa 0,0 l/m 0 min 0 min 12 W/m 16,1 km/h (3 Bft) 95,74 %
10.08.2019 20:52 23,7 C 22,2 C 22,2 C 54 % 1012,4 hPa 0,0 l/m 0 min 0 min 11 W/m 16,1 km/h (3 Bft) 97,87 %
10.08.2019 20:54 23,7 C 22,2 C 22,2 C 55 % 1012,5 hPa 0,0 l/m 0 min 0 min 10 W/m 12,9 km/h (3 Bft) 97,87 %
10.08.2019 20:56 23,7 C 22,2 C 22,2 C 55 % 1012,4 hPa 0,0 l/m 0 min 0 min 8 W/m 9,7 km/h (2 Bft) 97,87 %
10.08.2019 20:58 23,6 C 22,2 C 21,7 C 55 % 1012,5 hPa 0,0 l/m 0 min 0 min 7 W/m 22,5 km/h (4 Bft) 97,83 %
10.08.2019 21:00 23,6 C 22,2 C 21,7 C 55 % 1012,5 hPa 0,0 l/m 0 min 0 min 7 W/m 19,3 km/h (3 Bft) 97,87 %
10.08.2019 21:02 23,5 C 22,2 C 21,7 C 55 % 1012,5 hPa 0,0 l/m 0 min 0 min 5 W/m 25,7 km/h (4 Bft) 100,00 %
10.08.2019 21:04 23,5 C 22,2 C 21,7 C 55 % 1012,5 hPa 0,0 l/m 0 min 0 min 5 W/m 19,3 km/h (3 Bft) 100,00 %
10.08.2019 21:06 23,4 C 22,2 C 21,7 C 55 % 1012,5 hPa 0,0 l/m 0 min 0 min 0 W/m 22,5 km/h (4 Bft) 100,00 %
10.08.2019 21:08 23,4 C 22,2 C 21,7 C 55 % 1012,5 hPa 0,0 l/m 0 min 0 min 0 W/m 19,3 km/h (3 Bft) 100,00 %
10.08.2019 21:10 23,4 C 22,2 C 21,7 C 55 % 1012,5 hPa 0,0 l/m 0 min 0 min 0 W/m 12,9 km/h (3 Bft) 100,00 %
10.08.2019 21:12 23,3 C 21,7 C 21,7 C 55 % 1012,5 hPa 0,0 l/m 0 min 0 min 0 W/m 12,9 km/h (3 Bft) 95,74 %
10.08.2019 21:14 23,3 C 21,7 C 21,7 C 56 % 1012,5 hPa 0,0 l/m 0 min 0 min 0 W/m 19,3 km/h (3 Bft) 100,00 %
10.08.2019 21:16 23,3 C 21,7 C 21,7 C 56 % 1012,7 hPa 0,0 l/m 0 min 0 min 0 W/m 16,1 km/h (3 Bft) 100,00 %
10.08.2019 21:18 23,2 C 21,7 C 21,7 C 56 % 1012,7 hPa 0,0 l/m 0 min 0 min 0 W/m 12,9 km/h (3 Bft) 100,00 %
10.08.2019 21:20 23,2 C 21,7 C 21,7 C 56 % 1012,7 hPa 0,0 l/m 0 min 0 min 0 W/m 12,9 km/h (3 Bft) 100,00 %
10.08.2019 21:22 23,2 C 21,7 C 21,1 C 56 % 1012,6 hPa 0,0 l/m 0 min 0 min 0 W/m 9,7 km/h (2 Bft) 100,00 %
10.08.2019 21:24 23,1 C 21,7 C 21,1 C 56 % 1012,8 hPa 0,0 l/m 0 min 0 min 0 W/m 12,9 km/h (3 Bft) 100,00 %
10.08.2019 21:26 23,1 C 21,1 C 21,1 C 56 % 1012,8 hPa 0,0 l/m 0 min 0 min 0 W/m 9,7 km/h (2 Bft) 100,00 %
10.08.2019 21:28 23,1 C 21,1 C 21,1 C 57 % 1012,8 hPa 0,0 l/m 0 min 0 min 0 W/m 12,9 km/h (3 Bft) 97,87 %
10.08.2019 21:30 23,0 C 21,1 C 21,1 C 57 % 1012,9 hPa 0,0 l/m 0 min 0 min 0 W/m 12,9 km/h (3 Bft) 100,00 %
10.08.2019 21:32 22,9 C 21,1 C 21,1 C 57 % 1012,8 hPa 0,0 l/m 0 min 0 min 0 W/m 12,9 km/h (3 Bft) 97,83 %
10.08.2019 21:34 22,9 C 21,1 C 21,1 C 57 % 1012,9 hPa 0,0 l/m 0 min 0 min 0 W/m 12,9 km/h (3 Bft) 100,00 %
10.08.2019 21:36 22,8 C 21,1 C 21,1 C 57 % 1012,9 hPa 0,0 l/m 0 min 0 min 0 W/m 16,1 km/h (3 Bft) 100,00 %
10.08.2019 21:38 22,8 C 21,1 C 21,1 C 57 % 1013,0 hPa 0,0 l/m 0 min 0 min 0 W/m 16,1 km/h (3 Bft) 97,87 %
10.08.2019 21:40 22,7 C 21,1 C 21,1 C 58 % 1012,9 hPa 0,0 l/m 0 min 0 min 0 W/m 16,1 km/h (3 Bft) 100,00 %
10.08.2019 21:42 22,7 C 21,1 C 21,1 C 57 % 1013,0 hPa 0,0 l/m 0 min 0 min 0 W/m 16,1 km/h (3 Bft) 100,00 %
10.08.2019 21:44 22,7 C 21,1 C 21,1 C 58 % 1012,9 hPa 0,0 l/m 0 min 0 min 0 W/m 16,1 km/h (3 Bft) 95,65 %
10.08.2019 21:46 22,6 C 21,1 C 21,1 C 58 % 1013,0 hPa 0,0 l/m 0 min 0 min 0 W/m 16,1 km/h (3 Bft) 95,74 %
10.08.2019 21:48 22,6 C 21,1 C 20,6 C 58 % 1013,0 hPa 0,0 l/m 0 min 0 min 0 W/m 12,9 km/h (3 Bft) 95,74 %
10.08.2019 21:50 22,6 C 21,1 C 20,6 C 58 % 1013,0 hPa 0,0 l/m 0 min 0 min 0 W/m 12,9 km/h (3 Bft) 95,74 %
10.08.2019 21:52 22,5 C 21,1 C 20,6 C 58 % 1013,0 hPa 0,0 l/m 0 min 0 min 0 W/m 19,3 km/h (3 Bft) 97,87 %
10.08.2019 21:54 22,4 C 21,1 C 20,6 C 58 % 1013,0 hPa 0,0 l/m 0 min 0 min 0 W/m 9,7 km/h (2 Bft) 97,87 %
10.08.2019 21:56 22,4 C 21,1 C 20,6 C 58 % 1013,0 hPa 0,0 l/m 0 min 0 min 0 W/m 16,1 km/h (3 Bft) 97,83 %
10.08.2019 21:58 22,4 C 20,6 C 20,6 C 59 % 1013,0 hPa 0,0 l/m 0 min 0 min 0 W/m 6,4 km/h (2 Bft) 97,87 %
10.08.2019 22:00 22,3 C 20,6 C 20,6 C 59 % 1013,0 hPa 0,0 l/m 0 min 0 min 0 W/m 12,9 km/h (3 Bft) 97,87 %
10.08.2019 22:02 22,3 C 20,6 C 20,6 C 59 % 1013,1 hPa 0,0 l/m 0 min 0 min 0 W/m 12,9 km/h (3 Bft) 95,74 %
10.08.2019 22:04 22,3 C 20,6 C 20,6 C 59 % 1013,1 hPa 0,0 l/m 0 min 0 min 0 W/m 16,1 km/h (3 Bft) 97,87 %
10.08.2019 22:06 22,2 C 20,6 C 20,6 C 59 % 1013,0 hPa 0,0 l/m 0 min 0 min 0 W/m 9,7 km/h (2 Bft) 97,83 %
10.08.2019 22:08 22,2 C 20,6 C 20,6 C 59 % 1013,0 hPa 0,0 l/m 0 min 0 min 0 W/m 12,9 km/h (3 Bft) 97,87 %
10.08.2019 22:10 22,2 C 20,6 C 20,6 C 59 % 1013,0 hPa 0,0 l/m 0 min 0 min 0 W/m 12,9 km/h (3 Bft) 97,87 %
10.08.2019 22:12 22,1 C 20,6 C 20,6 C 59 % 1013,0 hPa 0,0 l/m 0 min 0 min 0 W/m 12,9 km/h (3 Bft) 95,74 %
10.08.2019 22:14 22,1 C 20,6 C 20,0 C 60 % 1013,0 hPa 0,0 l/m 0 min 0 min 0 W/m 9,7 km/h (2 Bft) 95,74 %
10.08.2019 22:16 22,0 C 20,6 C 20,0 C 60 % 1013,0 hPa 0,0 l/m 0 min 0 min 0 W/m 12,9 km/h (3 Bft) 97,87 %
10.08.2019 22:18 22,0 C 20,0 C 20,0 C 60 % 1013,0 hPa 0,0 l/m 0 min 0 min 0 W/m 9,7 km/h (2 Bft) 97,83 %
10.08.2019 22:20 21,9 C 20,0 C 20,0 C 60 % 1013,1 hPa 0,0 l/m 0 min 0 min 0 W/m 9,7 km/h (2 Bft) 95,74 %
10.08.2019 22:22 21,9 C 20,0 C 20,0 C 60 % 1013,1 hPa 0,0 l/m 0 min 0 min 0 W/m 6,4 km/h (2 Bft) 97,87 %
10.08.2019 22:24 21,9 C 20,6 C 20,0 C 60 % 1013,1 hPa 0,0 l/m 0 min 0 min 0 W/m 12,9 km/h (3 Bft) 97,87 %
10.08.2019 22:26 21,8 C 20,6 C 20,0 C 61 % 1013,1 hPa 0,0 l/m 0 min 0 min 0 W/m 9,7 km/h (2 Bft) 97,87 %
10.08.2019 22:28 21,8 C 20,6 C 20,0 C 61 % 1013,1 hPa 0,0 l/m 0 min 0 min 0 W/m 6,4 km/h (2 Bft) 97,87 %
10.08.2019 22:30 21,8 C 20,6 C 20,0 C 61 % 1013,1 hPa 0,0 l/m 0 min 0 min 0 W/m 9,7 km/h (2 Bft) 97,87 %
10.08.2019 22:32 21,7 C 20,6 C 20,0 C 61 % 1013,1 hPa 0,0 l/m 0 min 0 min 0 W/m 9,7 km/h (2 Bft) 97,83 %
10.08.2019 22:34 21,7 C 20,6 C 20,0 C 61 % 1013,1 hPa 0,0 l/m 0 min 0 min 0 W/m 9,7 km/h (2 Bft) 97,87 %
10.08.2019 22:36 21,7 C 20,6 C 20,0 C 61 % 1013,1 hPa 0,0 l/m 0 min 0 min 0 W/m 12,9 km/h (3 Bft) 100,00 %
10.08.2019 22:38 21,7 C 20,6 C 20,0 C 62 % 1013,2 hPa 0,0 l/m 0 min 0 min 0 W/m 6,4 km/h (2 Bft) 100,00 %
10.08.2019 22:40 21,6 C 20,6 C 20,0 C 62 % 1013,2 hPa 0,0 l/m 0 min 0 min 0 W/m 12,9 km/h (3 Bft) 100,00 %
10.08.2019 22:42 21,6 C 20,6 C 20,0 C 62 % 1013,1 hPa 0,0 l/m 0 min 0 min 0 W/m 12,9 km/h (3 Bft) 100,00 %
10.08.2019 22:44 21,6 C 20,6 C 20,0 C 62 % 1013,2 hPa 0,0 l/m 0 min 0 min 0 W/m 6,4 km/h (2 Bft) 100,00 %
10.08.2019 22:46 21,6 C 20,6 C 20,0 C 62 % 1013,1 hPa 0,0 l/m 0 min 0 min 0 W/m 16,1 km/h (3 Bft) 100,00 %
10.08.2019 22:48 21,5 C 20,0 C 20,0 C 62 % 1013,1 hPa 0,0 l/m 0 min 0 min 0 W/m 6,4 km/h (2 Bft) 100,00 %
10.08.2019 22:50 21,5 C 20,0 C 20,0 C 62 % 1013,2 hPa 0,0 l/m 0 min 0 min 0 W/m 16,1 km/h (3 Bft) 97,87 %
10.08.2019 22:52 21,5 C 20,6 C 20,0 C 62 % 1013,2 hPa 0,0 l/m 0 min 0 min 0 W/m 19,3 km/h (3 Bft) 100,00 %
10.08.2019 22:54 21,4 C 20,0 C 20,0 C 62 % 1013,3 hPa 0,0 l/m 0 min 0 min 0 W/m 9,7 km/h (2 Bft) 100,00 %
10.08.2019 22:56 21,4 C 20,0 C 20,0 C 62 % 1013,3 hPa 0,0 l/m 0 min 0 min 0 W/m 9,7 km/h (2 Bft) 97,87 %
10.08.2019 22:58 21,4 C 20,0 C 20,0 C 62 % 1013,2 hPa 0,0 l/m 0 min 0 min 0 W/m 6,4 km/h (2 Bft) 97,87 %
10.08.2019 23:00 21,4 C 20,0 C 20,0 C 62 % 1013,2 hPa 0,0 l/m 0 min 0 min 0 W/m 12,9 km/h (3 Bft) 97,87 %
10.08.2019 23:02 21,4 C 20,0 C 20,0 C 63 % 1013,2 hPa 0,0 l/m 0 min 0 min 0 W/m 22,5 km/h (4 Bft) 100,00 %
10.08.2019 23:04 21,3 C 20,0 C 20,0 C 63 % 1013,2 hPa 0,0 l/m 0 min 0 min 0 W/m 12,9 km/h (3 Bft) 97,87 %
10.08.2019 23:06 21,3 C 20,0 C 20,0 C 63 % 1013,2 hPa 0,0 l/m 0 min 0 min 0 W/m 12,9 km/h (3 Bft) 95,65 %
10.08.2019 23:08 21,3 C 20,0 C 20,0 C 63 % 1013,2 hPa 0,0 l/m 0 min 0 min 0 W/m 12,9 km/h (3 Bft) 97,87 %
10.08.2019 23:10 21,3 C 20,0 C 20,0 C 63 % 1013,3 hPa 0,0 l/m 0 min 0 min 0 W/m 9,7 km/h (2 Bft) 97,87 %
10.08.2019 23:12 21,3 C 20,0 C 20,0 C 63 % 1013,3 hPa 0,0 l/m 0 min 0 min 0 W/m 9,7 km/h (2 Bft) 97,87 %
10.08.2019 23:14 21,2 C 20,0 C 19,4 C 63 % 1013,3 hPa 0,0 l/m 0 min 0 min 0 W/m 12,9 km/h (3 Bft) 97,87 %
10.08.2019 23:16 21,2 C 20,0 C 19,4 C 63 % 1013,4 hPa 0,0 l/m 0 min 0 min 0 W/m 16,1 km/h (3 Bft) 95,74 %
10.08.2019 23:18 21,2 C 20,0 C 19,4 C 63 % 1013,5 hPa 0,0 l/m 0 min 0 min 0 W/m 22,5 km/h (4 Bft) 97,83 %
10.08.2019 23:20 21,2 C 20,0 C 19,4 C 63 % 1013,6 hPa 0,0 l/m 0 min 0 min 0 W/m 19,3 km/h (3 Bft) 97,87 %
10.08.2019 23:22 21,1 C 20,0 C 19,4 C 63 % 1013,6 hPa 0,0 l/m 0 min 0 min 0 W/m 6,4 km/h (2 Bft) 95,74 %
10.08.2019 23:24 21,1 C 20,0 C 19,4 C 63 % 1013,7 hPa 0,0 l/m 0 min 0 min 0 W/m 16,1 km/h (3 Bft) 95,74 %
10.08.2019 23:26 21,1 C 20,0 C 20,0 C 63 % 1013,8 hPa 0,0 l/m 0 min 0 min 0 W/m 12,9 km/h (3 Bft) 95,74 %
10.08.2019 23:28 21,1 C 20,0 C 19,4 C 64 % 1013,9 hPa 0,0 l/m 0 min 0 min 0 W/m 9,7 km/h (2 Bft) 95,65 %
10.08.2019 23:30 21,0 C 20,0 C 19,4 C 64 % 1013,9 hPa 0,0 l/m 0 min 0 min 0 W/m 12,9 km/h (3 Bft) 93,62 %
10.08.2019 23:32 21,0 C 20,0 C 20,0 C 64 % 1013,9 hPa 0,0 l/m 0 min 0 min 0 W/m 16,1 km/h (3 Bft) 95,74 %
10.08.2019 23:34 21,0 C 20,0 C 19,4 C 63 % 1013,9 hPa 0,0 l/m 0 min 0 min 0 W/m 12,9 km/h (3 Bft) 93,62 %
10.08.2019 23:36 20,9 C 20,0 C 19,4 C 63 % 1014,0 hPa 0,0 l/m 0 min 0 min 0 W/m 6,4 km/h (2 Bft) 95,74 %
10.08.2019 23:38 20,9 C 20,0 C 19,4 C 63 % 1014,0 hPa 0,0 l/m 0 min 0 min 0 W/m 9,7 km/h (2 Bft) 95,24 %
10.08.2019 23:40 20,9 C 19,4 C 19,4 C 63 % 1013,9 hPa 0,0 l/m 0 min 0 min 0 W/m 9,7 km/h (2 Bft) 95,65 %
10.08.2019 23:42 20,9 C 19,4 C 19,4 C 64 % 1014,0 hPa 0,0 l/m 0 min 0 min 0 W/m 6,4 km/h (2 Bft) 95,74 %
10.08.2019 23:44 20,9 C 20,0 C 19,4 C 64 % 1014,0 hPa 0,0 l/m 0 min 0 min 0 W/m 9,7 km/h (2 Bft) 95,74 %
10.08.2019 23:46 20,9 C 19,4 C 19,4 C 64 % 1014,0 hPa 0,0 l/m 0 min 0 min 0 W/m 9,7 km/h (2 Bft) 95,74 %
10.08.2019 23:48 20,8 C 19,4 C 19,4 C 64 % 1014,0 hPa 0,0 l/m 0 min 0 min 0 W/m 9,7 km/h (2 Bft) 95,74 %
10.08.2019 23:50 20,8 C 19,4 C 19,4 C 64 % 1014,0 hPa 0,0 l/m 0 min 0 min 0 W/m 9,7 km/h (2 Bft) 95,74 %
10.08.2019 23:52 20,8 C 19,4 C 19,4 C 64 % 1014,1 hPa 0,0 l/m 0 min 0 min 0 W/m 6,4 km/h (2 Bft) 95,65 %
10.08.2019 23:54 20,8 C 19,4 C 19,4 C 64 % 1014,0 hPa 0,0 l/m 0 min 0 min 0 W/m 6,4 km/h (2 Bft) 95,74 %
10.08.2019 23:56 20,8 C 19,4 C 19,4 C 64 % 1014,0 hPa 0,0 l/m 0 min 0 min 0 W/m 9,7 km/h (2 Bft) 95,74 %
10.08.2019 23:58 20,8 C 19,4 C 19,4 C 64 % 1014,0 hPa 0,0 l/m 0 min 0 min 0 W/m 6,4 km/h (2 Bft) 95,74 %
_ Min-Zeit 04:24 01:02 00:36 18:08 14:30 - - - - 00:02 00:02
Minimum _ 19,0 C 17,8 C 17,2 C 49 % 1010,0 hPa - - - - 0,0 km/h (0 Bft) 12,50 %
_ Max-Zeit 16:02 14:28 14:28 00:00 23:52 07:58 18:08 00:00 14:30 10:30 00:00
Maximum _ 25,7 C 30,0 C 27,8 C 97 % 1014,1 hPa 0,2 l/m 4 min 0 min 1064 W/m 61,2 km/h
SO (7 Bft)
100,00 %
Durchschnitt _ 22,0 C 21,9 C 21,2 C 69 % 1011,6 hPa #0,2 l/m #3:34 h #0 min. 236 W/m 24,0 km/h (4 Bft) 97,27 %
© 2019 W. Hausmann